KC8P Weather Reports


Display with metric or nautical units.
time (UTC)temp
F
wind
direction
speed
MPH
gust
MPH
rain 1hr
in
rain 24hr
in
rain mn
in
humidity
%
barometer
mb
20260506062431 48 326 0.0 3.0 0.00 0.00 0.00 59 1008.6
20260506062325 48 330 0.0 3.0 0.00 0.00 0.00 59 1008.6
20260506062300 48 287 1.0 4.0 0.00 0.00 0.00 58 1008.6
20260506062255 48 248 0.0 3.0 0.00 0.00 0.00 59 1008.6
20260506062245 48 184 0.0 3.0 0.00 0.00 0.00 59 1008.3
20260506062007 48 341 1.0 7.0 0.00 0.00 0.00 58 1008.6
20260506061901 48 336 2.0 7.0 0.00 0.00 0.00 58 1008.6
20260506061756 48 324 2.0 7.0 0.00 0.00 0.00 58 1008.6
20260506061747 48 326 2.0 7.0 0.00 0.00 0.00 58 1008.3
20260506061738 48 315 0.0 7.0 0.00 0.00 0.00 58 1008.6
20260506061439 48 329 1.0 7.0 0.00 0.00 0.00 58 1008.6
20260506061334 48 328 1.0 7.0 0.00 0.00 0.00 57 1008.3
20260506061249 48 326 2.0 7.0 0.00 0.00 0.00 57 1008.3
20260506061240 48 326 2.0 7.0 0.00 0.00 0.00 57 1008.6
20260506061229 48 330 4.0 6.0 0.00 0.00 0.00 58 1008.6
20260506060911 48 309 1.0 3.0 0.00 0.00 0.00 58 1008.6
20260506060805 48 27 0.0 3.0 0.00 0.00 0.00 57 1008.6
20260506060737 48 305 2.0 3.0 0.00 0.00 0.00 57 1008.3
20260506060732 48 330 2.0 3.0 0.00 0.00 0.00 57 1008.6
20260506060723 48 332 1.0 3.0 0.00 0.00 0.00 57 1008.3
20260506060447 48 325 1.0 3.0 0.00 0.00 0.00 57 1008.3
20260506060342 48 322 1.0 3.0 0.00 0.00 0.00 57 1008.6
20260506060235 48 276 2.0 3.0 0.00 0.00 0.00 57 1008.6
20260506060130 48 298 2.0 3.0 0.00 0.00 0.00 58 1008.3
20260506051354 49 341 1.0 2.0 0.00 0.00 0.00 57 1008.6
20260506051316 49 282 0.0 2.0 0.00 0.00 0.00 57 1008.6
20260506051209 49 300 0.0 2.0 0.00 0.00 0.00 58 1008.6
20260506051103 49 308 0.0 2.0 0.00 0.00 0.00 57 1008.3
20260506050957 49 324 0.0 3.0 0.00 0.00 0.00 56 1008.3
20260506050851 49 278 1.0 3.0 0.00 0.00 0.00 58 1007.9
20260506050746 49 227 1.0 3.0 0.00 0.00 0.00 57 1008.6
20260506050640 49 340 1.0 3.0 0.00 0.00 0.00 56 1008.6
20260506050534 49 319 1.0 3.0 0.00 0.00 0.00 57 1008.3
20260506050430 49 291 0.0 4.0 0.00 0.00 0.00 57 1008.3
20260506050340 49 290 0.0 4.0 0.00 0.00 0.00 57 1008.3
20260506050323 49 300 0.0 4.0 0.00 0.00 0.00 57 1008.3
20260506050217 49 277 0.0 4.0 0.00 0.00 0.00 56 1008.3
20260506050116 49 258 0.0 4.0 0.00 0.00 0.00 56 1008.3
20260506045121 49 276 0.0 4.0 0.00 0.00 0.00 57 1008.3
20260506045015 49 250 1.0 4.0 0.00 0.00 0.00 56 1008.3
20260506044909 49 325 0.0 3.0 0.00 0.00 0.00 57 1008.3
20260506044820 49 320 1.0 6.0 0.00 0.00 0.00 56 1007.9
20260506044804 49 351 2.0 6.0 0.00 0.00 0.00 57 1007.9
20260506044658 49 314 0.0 6.0 0.00 0.00 0.00 57 1007.9
20260506044552 49 325 0.0 6.0 0.00 0.00 0.00 57 1007.9
20260506044447 49 333 2.0 6.0 0.00 0.00 0.00 57 1007.9
20260506044340 49 340 1.0 6.0 0.00 0.00 0.00 57 1007.9
20260506044314 49 318 1.0 6.0 0.00 0.00 0.00 57 1007.9
20260506044235 49 303 1.0 6.0 0.00 0.00 0.00 58 1008.3
20260506044130 49 294 0.0 6.0 0.00 0.00 0.00 57 1008.3
20260506044023 49 307 1.0 6.0 0.00 0.00 0.00 56 1008.3
20260506043919 49 312 1.0 6.0 0.00 0.00 0.00 56 1007.9
20260506043812 49 316 1.0 3.0 0.00 0.00 0.00 57 1007.9
20260506043707 49 341 0.0 3.0 0.00 0.00 0.00 57 1007.9
20260506043601 49 7 1.0 3.0 0.00 0.00 0.00 57 1007.9
20260506043455 49 298 0.0 3.0 0.00 0.00 0.00 57 1008.3
20260506043349 49 226 0.0 3.0 0.00 0.00 0.00 57 1008.3
20260506043301 49 226 1.0 3.0 0.00 0.00 0.00 57 1007.9
20260506043244 49 269 1.0 3.0 0.00 0.00 0.00 57 1007.9
20260506043138 49 312 2.0 3.0 0.00 0.00 0.00 57 1007.9
20260506043032 49 312 1.0 3.0 0.00 0.00 0.00 56 1007.9
20260506042927 49 318 2.0 3.0 0.00 0.00 0.00 57 1007.9
20260506042821 49 280 1.0 3.0 0.00 0.00 0.00 57 1007.9
20260506042755 49 281 1.0 3.0 0.00 0.00 0.00 57 1007.9
20260506042715 49 322 1.0 3.0 0.00 0.00 0.00 57 1007.9
20260506042610 49 328 1.0 3.0 0.00 0.00 0.00 57 1007.9
20260506042503 49 324 1.0 3.0 0.00 0.00 0.00 57 1008.3
20260506042359 49 324 0.0 3.0 0.00 0.00 0.00 57 1007.9
20260506042253 49 334 0.0 3.0 0.00 0.00 0.00 56 1008.3
20260506042148 49 344 1.0 3.0 0.00 0.00 0.00 56 1008.3
20260506042041 49 328 1.0 2.0 0.00 0.00 0.00 57 1007.9
20260506041935 49 288 1.0 2.0 0.00 0.00 0.00 57 1007.9
20260506041830 49 314 1.0 2.0 0.00 0.00 0.00 57 1007.9
20260506041741 49 315 1.0 2.0 0.00 0.00 0.00 57 1007.9
20260506041725 49 337 1.0 2.0 0.00 0.00 0.00 57 1007.9
20260506041620 49 305 0.0 2.0 0.00 0.00 0.00 58 1008.3
20260506041513 49 161 0.0 2.0 0.00 0.00 0.00 57 1007.9
20260506041408 49 289 0.0 2.0 0.00 0.00 0.00 57 1007.9
20260506041302 49 289 0.0 2.0 0.00 0.00 0.00 57 1007.9
20260506041236 49 290 0.0 2.0 0.00 0.00 0.00 57 1007.9
20260506041157 49 290 0.0 2.0 0.00 0.00 0.00 57 1007.9
20260506041050 49 310 0.0 2.0 0.00 0.00 0.00 57 1007.9
20260506040944 49 302 0.0 3.0 0.00 0.00 0.00 58 1007.9
20260506040837 49 320 0.0 3.0 0.00 0.00 0.00 58 1008.3
20260506040733 49 5 1.0 3.0 0.00 0.00 0.00 57 1008.3
20260506040627 49 272 2.0 3.0 0.00 0.00 0.00 56 1008.3
20260506040533 49 312 0.0 3.0 0.00 0.00 0.00 56 1008.3
20260506040415 49 324 0.0 3.0 0.00 0.00 0.00 57 1008.3
20260506040221 49 332 0.0 3.0 0.00 0.00 0.00 56 1007.9
20260506040204 49 332 0.0 3.0 0.00 0.00 0.00 56 1007.9
20260506035952 49 283 1.0 2.0 0.00 0.00 0.03 56 1008.3
20260506035847 49 320 0.0 2.0 0.00 0.00 0.03 56 1008.3
20260506035741 49 350 1.0 2.0 0.00 0.00 0.03 56 1008.3
20260506035715 49 327 1.0 2.0 0.00 0.00 0.03 56 1008.3
20260506035635 49 287 1.0 2.0 0.00 0.00 0.03 57 1008.3
20260506035530 49 276 0.0 1.0 0.00 0.00 0.03 57 1008.6
20260506035424 49 276 0.0 1.0 0.00 0.00 0.03 56 1008.3
20260506035319 49 277 0.0 3.0 0.00 0.00 0.03 56 1008.3
20260506035213 49 284 0.0 3.0 0.00 0.00 0.03 56 1008.3
20260506035107 49 290 0.0 3.0 0.00 0.00 0.03 55 1008.3
20260506035002 49 300 0.0 3.0 0.00 0.00 0.03 56 1008.6
20260506034856 49 241 1.0 3.0 0.00 0.00 0.03 57 1008.3
20260506034749 49 203 0.0 3.0 0.00 0.00 0.03 57 1008.6
20260506034643 49 222 0.0 3.0 0.00 0.00 0.03 57 1008.3
20260506034537 49 219 0.0 3.0 0.00 0.00 0.03 57 1008.3
20260506034431 49 213 1.0 3.0 0.00 0.00 0.03 57 1008.3
20260506034326 49 287 0.0 2.0 0.00 0.00 0.03 55 1008.3
20260506034219 49 349 0.0 2.0 0.00 0.00 0.03 56 1008.3
20260506034153 49 311 0.0 2.0 0.00 0.00 0.03 56 1008.3
20260506034114 49 281 0.0 2.0 0.00 0.00 0.03 56 1008.3
20260506034009 49 283 0.0 2.0 0.00 0.00 0.03 56 1008.3
20260506033903 49 254 0.0 4.0 0.00 0.00 0.03 56 1008.6
20260506033758 49 247 0.0 4.0 0.00 0.00 0.03 55 1008.6
20260506033652 49 257 1.0 4.0 0.00 0.00 0.03 55 1008.3
20260506033546 49 266 0.0 4.0 0.00 0.00 0.03 56 1008.6
20260506033441 49 265 2.0 4.0 0.00 0.00 0.03 55 1008.3
20260506033336 49 287 1.0 4.0 0.00 0.00 0.03 55 1008.3
20260506033229 49 286 1.0 4.0 0.00 0.00 0.03 55 1008.3
20260506033124 49 201 0.0 4.0 0.00 0.00 0.03 55 1008.3
20260506033018 49 235 0.0 4.0 0.00 0.00 0.03 55 1008.3
20260506032913 49 188 1.0 3.0 0.00 0.00 0.03 55 1008.3
20260506032806 49 241 0.0 3.0 0.00 0.00 0.03 55 1008.3
20260506032701 49 276 1.0 3.0 0.00 0.00 0.03 54 1008.3
20260506032634 49 198 2.0 3.0 0.00 0.00 0.03 55 1008.3
20260506032556 49 316 0.0 1.0 0.00 0.00 0.03 56 1008.3
20260506032449 49 319 0.0 1.0 0.00 0.00 0.03 55 1008.3
20260506032344 49 307 0.0 1.0 0.00 0.00 0.03 55 1008.6
20260506032239 49 250 0.0 3.0 0.00 0.00 0.03 55 1008.6
20260506032133 49 232 0.0 3.0 0.00 0.00 0.03 56 1008.3
20260506032027 49 232 0.0 3.0 0.00 0.00 0.03 56 1008.6
20260506031921 49 232 0.0 3.0 0.00 0.00 0.03 54 1008.6
20260506031814 49 230 1.0 3.0 0.00 0.00 0.03 54 1008.3
20260506031710 50 238 0.0 3.0 0.00 0.00 0.03 54 1008.3
20260506031621 50 258 0.0 3.0 0.00 0.00 0.03 55 1008.3
20260506031604 50 259 0.0 3.0 0.00 0.00 0.03 56 1008.3
20260506031459 49 272 0.0 3.0 0.00 0.00 0.03 54 1008.3
20260506031353 49 267 1.0 3.0 0.00 0.00 0.03 54 1008.3
20260506031247 49 283 0.0 3.0 0.00 0.00 0.03 54 1008.3
20260506031142 49 278 0.0 3.0 0.00 0.00 0.03 55 1008.3
20260506031116 49 259 0.0 3.0 0.00 0.00 0.03 55 1008.3
20260506031035 50 255 0.0 3.0 0.00 0.00 0.03 55 1008.3
20260506030942 50 319 0.0 3.0 0.00 0.00 0.03 54 1007.9
20260506030825 50 250 1.0 3.0 0.00 0.00 0.03 54 1008.3
20260506030718 50 193 0.0 3.0 0.00 0.00 0.03 54 1008.3
20260506030612 50 269 0.0 3.0 0.00 0.00 0.03 54 1008.3
20260506030506 50 275 0.0 3.0 0.00 0.00 0.03 54 1008.3
20260506030400 50 311 2.0 3.0 0.00 0.00 0.03 54 1008.3
20260506030254 50 232 0.0 2.0 0.00 0.00 0.03 55 1008.3
20260506030149 50 232 0.0 2.0 0.00 0.00 0.03 54 1008.3
20260506030056 50 223 0.0 2.0 0.00 0.00 0.03 55 1008.3
20260506025937 50 240 0.0 2.0 0.00 0.00 0.03 55 1008.3
20260506025831 50 240 0.0 2.0 0.00 0.00 0.03 54 1007.9
20260506025726 50 259 0.0 2.0 0.00 0.00 0.03 54 1008.6
20260506025619 50 314 1.0 2.0 0.00 0.00 0.03 55 1008.6
20260506025551 50 301 0.0 1.0 0.00 0.00 0.03 55 1008.6
20260506025513 50 36 1.0 1.0 0.00 0.00 0.03 54 1008.3
20260506025407 50 252 0.0 3.0 0.00 0.00 0.03 54 1008.3
20260506025305 50 182 0.0 3.0 0.00 0.00 0.03 54 1008.3
20260506025155 50 274 0.0 3.0 0.00 0.00 0.03 54 1008.3
20260506025050 50 288 0.0 3.0 0.00 0.00 0.03 54 1008.3
20260506024957 50 293 0.0 3.0 0.00 0.00 0.03 54 1008.6
20260506024838 50 233 0.0 3.0 0.00 0.00 0.03 54 1008.6
20260506024734 50 259 0.0 3.0 0.00 0.00 0.03 55 1008.3
20260506024628 50 226 0.0 3.0 0.00 0.00 0.03 56 1008.3
20260506024539 50 226 0.0 3.0 0.00 0.00 0.03 56 1008.3
20260506024522 50 226 0.0 3.0 0.00 0.00 0.03 55 1008.6
20260506024416 50 250 0.0 2.0 0.00 0.00 0.03 54 1008.6
20260506024311 50 244 0.0 2.0 0.00 0.00 0.03 54 1008.6
20260506024218 50 236 0.0 2.0 0.00 0.00 0.03 55 1008.3
20260506024100 50 219 0.0 2.0 0.00 0.00 0.03 54 1008.3
20260506024034 50 240 0.0 2.0 0.00 0.00 0.03 54 1007.9
20260506023954 50 259 1.0 2.0 0.00 0.00 0.03 54 1007.9
20260506023849 50 289 1.0 2.0 0.00 0.00 0.03 54 1008.3
20260506023756 50 248 0.0 2.0 0.00 0.00 0.03 54 1008.3
20260506023637 50 248 0.0 2.0 0.00 0.00 0.03 53 1008.3
20260506023531 50 223 2.0 2.0 0.00 0.00 0.03 53 1008.3
20260506023426 50 210 1.0 3.0 0.00 0.00 0.03 54 1008.3
20260506023321 50 219 0.0 3.0 0.00 0.00 0.03 53 1007.9
20260506023215 50 276 0.0 3.0 0.00 0.00 0.03 54 1008.3
20260506023110 50 293 0.0 3.0 0.00 0.00 0.03 54 1008.3
20260506023021 50 293 0.0 6.0 0.00 0.00 0.03 54 1008.3
20260506023005 50 293 0.0 6.0 0.00 0.00 0.03 54 1008.3
20260506022859 50 302 0.0 6.0 0.00 0.00 0.03 54 1008.3
20260506022753 50 24 0.0 6.0 0.00 0.00 0.03 53 1008.3
20260506022647 50 196 1.0 6.0 0.00 0.00 0.03 53 1008.3
20260506022541 50 87 0.0 6.0 0.00 0.00 0.03 54 1008.3
20260506022514 50 48 1.0 6.0 0.00 0.00 0.03 53 1008.3
20260506022435 50 318 1.0 6.0 0.00 0.00 0.03 53 1008.3
20260506022330 50 227 0.0 6.0 0.00 0.00 0.03 53 1008.3
20260506022224 50 238 0.0 6.0 0.00 0.00 0.03 53 1008.6
20260506022119 50 246 3.0 6.0 0.00 0.00 0.03 52 1008.6
20260506022013 50 263 0.0 3.0 0.00 0.00 0.03 53 1008.6
20260506021908 50 305 0.0 4.0 0.00 0.00 0.03 54 1008.6
20260506021801 50 278 1.0 4.0 0.00 0.00 0.03 52 1008.6
20260506021655 50 193 2.0 4.0 0.00 0.00 0.03 53 1008.3
20260506021549 51 260 1.0 4.0 0.00 0.00 0.03 53 1008.6
20260506021500 51 247 1.0 4.0 0.00 0.00 0.03 54 1008.3
20260506021443 51 264 1.0 4.0 0.00 0.00 0.03 53 1008.3
20260506021337 51 180 1.0 4.0 0.00 0.00 0.03 53 1008.6
20260506021231 51 239 0.0 4.0 0.00 0.00 0.03 53 1008.6
20260506021125 51 145 1.0 4.0 0.00 0.00 0.03 54 1008.3
20260506021020 51 284 3.0 4.0 0.00 0.00 0.03 53 1008.3
20260506020954 51 298 3.0 4.0 0.00 0.00 0.03 54 1008.3
20260506020915 51 226 2.0 4.0 0.00 0.00 0.03 53 1008.3
20260506020809 51 203 0.0 4.0 0.00 0.00 0.03 54 1008.6
20260506020704 51 221 0.0 4.0 0.00 0.00 0.03 53 1008.3
20260506020557 51 206 0.0 4.0 0.00 0.00 0.03 54 1008.3
20260506020452 51 219 0.0 4.0 0.00 0.00 0.03 54 1008.3
20260506020346 51 210 0.0 4.0 0.00 0.00 0.03 53 1008.3
20260506020241 51 245 1.0 4.0 0.00 0.00 0.03 51 1008.3
20260506020135 51 295 3.0 4.0 0.00 0.00 0.03 51 1008.3
20260506020031 51 221 2.0 3.0 0.00 0.00 0.03 52 1008.3
20260506015941 51 229 2.0 8.0 0.00 0.00 0.03 52 1008.3
20260506015924 51 244 1.0 8.0 0.00 0.00 0.03 52 1008.3
20260506015818 51 258 0.0 8.0 0.00 0.00 0.03 53 1007.9
20260506015713 51 232 0.0 8.0 0.00 0.00 0.03 53 1008.3
20260506015607 51 240 0.0 8.0 0.00 0.00 0.03 53 1008.3
20260506015502 51 235 1.0 8.0 0.00 0.00 0.03 52 1007.9
20260506015435 51 299 0.0 8.0 0.00 0.00 0.03 53 1007.9
20260506015356 51 250 0.0 8.0 0.00 0.00 0.03 53 1007.9
20260506015250 51 227 0.0 8.0 0.00 0.00 0.03 52 1007.9
20260506015145 51 250 0.0 8.0 0.00 0.00 0.03 50 1007.9
20260506015039 51 221 3.0 8.0 0.00 0.00 0.03 51 1007.9
20260506014932 51 311 0.0 3.0 0.00 0.00 0.03 52 1007.9
20260506014827 51 224 0.0 3.0 0.00 0.00 0.03 51 1007.9
20260506014724 51 236 1.0 3.0 0.00 0.00 0.03 51 1007.9
20260506014618 51 230 0.0 3.0 0.00 0.00 0.03 51 1007.9
20260506014513 51 270 0.0 3.0 0.00 0.00 0.03 52 1007.9
20260506014425 51 272 0.0 3.0 0.00 0.00 0.03 51 1007.9
20260506014407 51 281 1.0 3.0 0.00 0.00 0.03 52 1007.9
20260506014301 51 171 0.0 3.0 0.00 0.00 0.03 52 1007.9
20260506014156 51 200 0.0 3.0 0.00 0.00 0.03 51 1007.9
20260506014049 51 267 2.0 4.0 0.00 0.00 0.03 51 1007.9
20260506013945 51 299 0.0 6.0 0.00 0.00 0.03 51 1007.9
20260506013918 51 15 0.0 6.0 0.00 0.00 0.03 52 1007.9
20260506013838 51 224 3.0 6.0 0.00 0.00 0.03 51 1007.9
20260506013733 51 85 0.0 6.0 0.00 0.00 0.03 52 1007.6
20260506013627 51 252 0.0 6.0 0.00 0.00 0.03 52 1007.6
20260506013521 51 273 1.0 6.0 0.00 0.00 0.03 51 1007.9
20260506013416 51 262 0.0 6.0 0.00 0.00 0.03 51 1007.9
20260506013309 51 256 0.0 6.0 0.00 0.00 0.03 51 1007.9
20260506013204 51 186 1.0 6.0 0.00 0.00 0.03 52 1007.9
20260506013058 51 298 2.0 6.0 0.00 0.00 0.03 51 1007.9
20260506012953 51 270 1.0 3.0 0.00 0.00 0.03 51 1007.9
20260506012903 51 222 2.0 3.0 0.00 0.00 0.03 50 1007.9
20260506012847 51 268 2.0 3.0 0.00 0.00 0.03 51 1007.9
20260506012741 51 280 2.0 3.0 0.00 0.00 0.03 52 1007.9
20260506012635 51 269 0.0 3.0 0.00 0.00 0.03 52 1007.9
20260506012529 51 246 0.0 3.0 0.00 0.00 0.03 51 1007.6
20260506012424 51 289 1.0 4.0 0.00 0.00 0.03 51 1007.6
20260506012357 51 276 2.0 4.0 0.00 0.00 0.03 51 1007.6
20260506012318 51 206 0.0 4.0 0.00 0.00 0.03 52 1007.9
20260506012213 51 254 0.0 4.0 0.00 0.00 0.03 52 1007.9
20260506012107 51 249 0.0 4.0 0.00 0.00 0.03 51 1007.6
20260506012003 51 226 1.0 4.0 0.00 0.00 0.03 52 1007.6
20260506011855 51 205 0.0 4.0 0.00 0.00 0.03 51 1007.9
20260506011750 52 249 1.0 4.0 0.00 0.00 0.03 50 1007.9
20260506011644 52 253 1.0 4.0 0.00 0.00 0.03 50 1007.9
20260506011539 52 287 1.0 4.0 0.00 0.00 0.03 50 1007.6
20260506011434 52 284 4.0 4.0 0.00 0.00 0.03 50 1007.6
20260506011344 51 272 3.0 4.0 0.00 0.00 0.03 50 1007.6
20260506011328 51 312 1.0 4.0 0.00 0.00 0.03 50 1007.6
20260506011222 51 242 2.0 4.0 0.00 0.00 0.03 50 1007.6
20260506011116 51 262 1.0 4.0 0.00 0.00 0.03 52 1007.9
20260506011022 52 157 1.0 3.0 0.00 0.00 0.03 51 1007.6
20260506010837 52 211 0.0 3.0 0.00 0.00 0.03 52 1007.6
20260506010758 52 235 1.0 3.0 0.00 0.00 0.03 51 1007.9
20260506010653 52 252 2.0 3.0 0.00 0.00 0.03 50 1007.9
20260506010548 52 222 0.0 3.0 0.00 0.00 0.03 50 1007.6
20260506010442 52 264 1.0 6.0 0.00 0.00 0.03 52 1007.9
20260506010336 52 284 1.0 6.0 0.00 0.00 0.03 52 1007.9
20260506010230 52 283 3.0 6.0 0.00 0.00 0.03 51 1007.9
20260506010125 52 242 0.0 6.0 0.00 0.00 0.03 52 1007.6
20260506010019 52 237 1.0 6.0 0.00 0.00 0.03 51 1007.6
20260506005914 52 332 0.0 6.0 0.00 0.00 0.03 51 1007.9
20260506005825 52 228 0.0 7.0 0.00 0.00 0.03 52 1007.6
20260506005808 52 241 0.0 7.0 0.00 0.00 0.03 52 1007.6
20260506005703 52 249 0.0 7.0 0.00 0.00 0.03 52 1007.6
20260506005556 52 274 1.0 7.0 0.00 0.00 0.03 51 1007.9
20260506005451 52 273 4.0 7.0 0.00 0.00 0.03 51 1007.6
20260506005345 52 223 0.0 7.0 0.00 0.00 0.03 52 1007.6
20260506005318 52 245 0.0 7.0 0.00 0.00 0.03 52 1007.6
20260506005239 52 195 0.0 7.0 0.00 0.00 0.03 53 1007.9
20260506005134 52 218 2.0 7.0 0.00 0.00 0.03 53 1007.9
20260506005027 52 297 1.0 7.0 0.00 0.00 0.03 52 1007.9
20260506004921 52 265 5.0 7.0 0.00 0.00 0.03 52 1007.6
20260506004815 52 196 3.0 3.0 0.00 0.00 0.03 54 1007.6
20260506004710 52 289 1.0 3.0 0.00 0.00 0.03 54 1007.6
20260506004605 52 268 0.0 3.0 0.00 0.00 0.03 55 1007.9
20260506004500 52 266 0.0 2.0 0.00 0.00 0.03 55 1007.6
20260506004354 52 273 0.0 2.0 0.00 0.00 0.03 56 1007.6
20260506004306 52 267 0.0 2.0 0.00 0.00 0.03 54 1007.9
20260506004248 52 257 0.0 2.0 0.00 0.00 0.03 55 1007.9
20260506004142 52 265 0.0 2.0 0.00 0.00 0.03 56 1007.6
20260506004036 52 235 0.0 2.0 0.00 0.00 0.03 55 1007.9
20260506003929 52 273 1.0 2.0 0.00 0.00 0.03 56 1007.9
20260506003824 52 266 0.0 2.0 0.00 0.00 0.03 57 1007.6
20260506003757 52 200 0.0 3.0 0.00 0.00 0.03 57 1007.6
20260506003718 52 227 1.0 3.0 0.00 0.00 0.03 56 1007.6
20260506003613 52 251 0.0 3.0 0.00 0.00 0.03 56 1007.6
20260506003508 52 218 0.0 3.0 0.00 0.00 0.03 57 1007.9
20260506003401 52 261 1.0 3.0 0.00 0.00 0.03 56 1007.6
20260506003256 52 228 1.0 3.0 0.00 0.00 0.03 56 1007.9
20260506003150 52 236 0.0 3.0 0.00 0.00 0.03 56 1007.6
20260506003044 52 230 0.0 3.0 0.00 0.00 0.03 55 1007.6
20260506002939 52 231 0.0 3.0 0.00 0.00 0.03 55 1007.6
20260506002834 52 215 2.0 3.0 0.00 0.00 0.03 55 1007.6
20260506002744 52 244 2.0 3.0 0.00 0.00 0.03 55 1007.6
20260506002728 52 256 2.0 3.0 0.00 0.00 0.03 55 1007.6
20260506002622 52 252 2.0 3.0 0.00 0.00 0.03 55 1007.6
20260506002516 52 262 1.0 2.0 0.00 0.00 0.03 56 1007.9
20260506002411 52 222 2.0 2.0 0.00 0.00 0.03 56 1007.6
20260506002306 52 244 2.0 2.0 0.00 0.00 0.03 56 1007.6
20260506002239 52 203 1.0 2.0 0.00 0.00 0.03 58 1007.6
20260506002159 52 208 1.0 2.0 0.00 0.00 0.03 58 1007.6
20260506002053 52 222 0.0 2.0 0.00 0.00 0.03 57 1007.6
20260506001948 52 267 2.0 2.0 0.00 0.00 0.03 56 1007.6
20260506001843 52 202 1.0 4.0 0.00 0.00 0.03 57 1007.6
20260506001737 52 187 1.0 4.0 0.00 0.00 0.03 57 1007.9
20260506001631 52 267 1.0 4.0 0.00 0.00 0.03 58 1007.6
20260506001525 52 251 0.0 4.0 0.00 0.00 0.03 57 1007.6
20260506001419 52 151 0.0 4.0 0.00 0.00 0.03 59 1007.6
20260506001313 52 242 0.0 4.0 0.00 0.00 0.03 57 1007.6
20260506001224 52 141 1.0 4.0 0.00 0.00 0.03 57 1007.6
20260506001208 52 175 1.0 4.0 0.00 0.00 0.03 58 1007.6
20260506001101 52 232 1.0 4.0 0.00 0.00 0.03 58 1007.6
20260506000955 52 213 2.0 4.0 0.00 0.00 0.03 57 1007.6
20260506000849 52 218 2.0 4.0 0.00 0.00 0.03 57 1007.3
20260506000744 52 234 1.0 3.0 0.00 0.00 0.03 58 1007.6
20260506000718 52 254 0.0 4.0 0.00 0.00 0.03 57 1007.6
20260506000638 52 290 1.0 4.0 0.00 0.00 0.03 56 1007.6
20260506000532 52 246 0.0 4.0 0.00 0.00 0.03 57 1007.6
20260506000427 53 221 0.0 4.0 0.00 0.00 0.03 57 1007.3
20260506000322 53 312 0.0 4.0 0.00 0.00 0.03 57 1007.3
20260506000215 53 285 0.0 4.0 0.00 0.00 0.03 57 1007.3
20260506000114 53 276 1.0 4.0 0.00 0.00 0.03 57 1007.3
20260506000002 53 253 1.0 4.0 0.00 0.00 0.03 56 1007.3
20260505235857 53 249 2.0 4.0 0.00 0.00 0.03 57 1007.3
20260505235751 53 266 2.0 4.0 0.00 0.00 0.03 57 1007.6
20260505235702 53 242 1.0 4.0 0.00 0.00 0.03 57 1007.3
20260505235646 53 228 2.0 4.0 0.00 0.00 0.03 57 1007.3
20260505235539 53 223 2.0 4.0 0.00 0.00 0.03 57 1007.3
20260505235432 53 190 3.0 4.0 0.00 0.00 0.03 57 1007.6
20260505235327 53 286 3.0 3.0 0.00 0.00 0.03 60 1007.3
20260505235222 53 224 1.0 3.0 0.00 0.00 0.03 58 1007.3
20260505235155 53 251 2.0 3.0 0.00 0.00 0.03 58 1007.3
20260505235117 53 245 1.0 3.0 0.00 0.00 0.03 59 1007.3
20260505235012 53 221 2.0 4.0 0.00 0.00 0.03 59 1006.9
20260505234905 53 241 1.0 4.0 0.00 0.00 0.03 59 1007.3
20260505234759 53 196 1.0 4.0 0.00 0.00 0.03 58 1007.3
20260505234653 53 232 1.0 4.0 0.00 0.00 0.03 58 1007.3
20260505234547 53 223 3.0 7.0 0.00 0.00 0.03 59 1007.3
20260505234441 53 234 1.0 7.0 0.00 0.00 0.03 60 1007.3
20260505234336 53 221 1.0 7.0 0.00 0.00 0.03 60 1007.3
20260505234230 53 163 0.0 7.0 0.00 0.00 0.03 60 1007.3
20260505234142 53 227 2.0 7.0 0.00 0.00 0.03 59 1007.3
20260505234125 53 250 2.0 7.0 0.00 0.00 0.03 59 1007.3
20260505234019 53 204 1.0 7.0 0.00 0.00 0.03 61 1007.3
20260505233914 53 229 1.0 7.0 0.00 0.00 0.03 62 1007.3
20260505233807 53 292 1.0 7.0 0.00 0.00 0.03 60 1006.9
20260505233703 53 244 2.0 7.0 0.00 0.00 0.03 60 1007.3
20260505233636 53 234 3.0 7.0 0.00 0.00 0.03 59 1007.3
20260505233555 53 244 3.0 6.0 0.00 0.00 0.03 61 1007.3
20260505233345 53 223 2.0 6.0 0.00 0.00 0.03 63 1007.3
20260505233239 53 227 2.0 6.0 0.00 0.00 0.03 63 1006.6
20260505233133 53 221 2.0 6.0 0.00 0.00 0.03 63 1006.9
20260505232922 53 250 3.0 6.0 0.00 0.00 0.03 62 1006.9
20260505232815 53 231 2.0 6.0 0.00 0.00 0.03 63 1007.3
20260505232709 53 252 2.0 6.0 0.00 0.00 0.03 63 1006.9
20260505232621 53 221 1.0 4.0 0.00 0.00 0.03 65 1006.9
20260505232602 53 208 0.0 4.0 0.00 0.00 0.03 65 1006.9
20260505232350 53 233 0.0 4.0 0.00 0.00 0.03 65 1006.9
20260505232245 53 228 0.0 4.0 0.00 0.00 0.03 65 1006.9
20260505232112 53 240 0.0 4.0 0.00 0.00 0.03 64 1006.9
20260505232034 53 217 1.0 4.0 0.00 0.00 0.03 64 1006.9
20260505231928 53 243 0.0 4.0 0.00 0.00 0.03 64 1006.9
20260505231822 53 246 2.0 4.0 0.00 0.00 0.03 63 1006.9
20260505231717 53 287 1.0 4.0 0.00 0.00 0.03 64 1006.9
20260505231609 53 226 3.0 4.0 0.00 0.00 0.03 65 1006.9
20260505231505 53 193 0.0 4.0 0.00 0.00 0.03 66 1006.9
20260505231400 53 165 1.0 4.0 0.00 0.00 0.03 66 1006.9
20260505231253 53 279 2.0 4.0 0.00 0.00 0.03 66 1006.9
20260505231149 53 251 1.0 4.0 0.00 0.00 0.03 66 1006.9
20260505231059 53 259 0.0 4.0 0.00 0.00 0.03 65 1006.9
20260505231043 53 234 0.0 4.0 0.00 0.00 0.03 66 1006.9
20260505230937 53 277 1.0 4.0 0.00 0.00 0.03 66 1006.9
20260505230830 53 229 1.0 6.0 0.00 0.00 0.03 66 1006.9
20260505230725 53 290 2.0 6.0 0.00 0.00 0.03 65 1006.9
20260505230618 53 263 2.0 6.0 0.00 0.00 0.03 65 1006.9
20260505230551 53 259 3.0 6.0 0.00 0.00 0.03 66 1006.9
20260505230513 53 195 1.0 6.0 0.00 0.00 0.03 66 1006.9
20260505230407 53 213 2.0 6.0 0.00 0.00 0.03 67 1007.3
20260505230156 54 239 2.0 6.0 0.00 0.00 0.03 65 1006.9
20260505230101 54 266 0.0 6.0 0.00 0.00 0.03 65 1006.9
20260505225945 54 271 2.0 6.0 0.00 0.00 0.03 65 1007.3
20260505225839 54 250 2.0 6.0 0.00 0.00 0.03 65 1006.9
20260505225732 54 216 2.0 6.0 0.00 0.00 0.03 66 1007.3
20260505225628 54 233 3.0 6.0 0.00 0.00 0.03 64 1007.3
20260505225537 54 264 2.0 6.0 0.00 0.00 0.03 63 1007.3
20260505225519 54 224 1.0 6.0 0.00 0.00 0.03 63 1007.3
20260505225414 54 254 0.0 6.0 0.00 0.00 0.03 64 1007.3
20260505225308 54 221 1.0 6.0 0.00 0.00 0.03 63 1006.9
20260505225203 54 235 2.0 6.0 0.00 0.00 0.03 63 1006.9
20260505225030 54 233 3.0 6.0 0.00 0.00 0.03 62 1006.9
20260505224952 54 193 2.0 3.0 0.00 0.00 0.03 62 1006.9
20260505224846 54 298 2.0 3.0 0.00 0.00 0.03 61 1007.3
20260505224741 54 212 0.0 3.0 0.00 0.00 0.03 60 1007.3
20260505224634 54 254 1.0 3.0 0.00 0.00 0.03 60 1007.3
20260505224529 54 260 1.0 6.0 0.00 0.00 0.03 60 1007.3
20260505224422 54 274 3.0 6.0 0.00 0.00 0.03 60 1007.3
20260505224317 54 187 2.0 6.0 0.00 0.00 0.03 60 1007.6
20260505224212 54 232 2.0 6.0 0.00 0.00 0.03 59 1007.3
20260505224106 54 244 2.0 6.0 0.00 0.00 0.03 60 1007.3
20260505224017 54 229 1.0 6.0 0.00 0.00 0.03 59 1007.3
20260505224001 54 240 0.0 6.0 0.00 0.00 0.03 59 1007.3
20260505223855 54 279 2.0 6.0 0.00 0.00 0.03 59 1007.3
20260505223749 54 270 0.0 6.0 0.00 0.00 0.03 60 1007.3
20260505223643 54 320 1.0 6.0 0.00 0.00 0.03 59 1007.3
20260505223537 54 266 4.0 6.0 0.00 0.00 0.03 58 1007.3
20260505223511 54 290 0.0 6.0 0.00 0.00 0.03 59 1007.3
20260505223431 54 260 4.0 6.0 0.00 0.00 0.03 59 1007.3
20260505223326 54 254 2.0 4.0 0.00 0.00 0.03 59 1006.9
20260505223220 54 264 3.0 6.0 0.00 0.00 0.03 59 1007.3
20260505223115 54 244 1.0 6.0 0.00 0.00 0.03 61 1007.3
20260505223009 54 310 2.0 6.0 0.00 0.00 0.03 60 1007.3
20260505222903 54 197 1.0 6.0 0.00 0.00 0.03 60 1007.3
20260505222810 54 237 0.0 6.0 0.00 0.00 0.03 61 1007.3
20260505222652 54 262 3.0 6.0 0.00 0.00 0.03 59 1007.3
20260505222545 54 282 1.0 6.0 0.00 0.00 0.03 59 1007.3
20260505222456 54 225 4.0 6.0 0.00 0.00 0.03 59 1007.3
20260505222438 54 236 0.0 6.0 0.00 0.00 0.03 59 1007.3
20260505222334 54 274 3.0 7.0 0.00 0.00 0.03 59 1007.3
20260505222227 54 294 2.0 7.0 0.00 0.00 0.03 60 1007.3
20260505222122 54 270 0.0 7.0 0.00 0.00 0.03 59 1007.3
20260505222014 54 250 3.0 7.0 0.00 0.00 0.03 60 1007.3
20260505221948 54 195 2.0 7.0 0.00 0.00 0.03 60 1007.3
20260505221908 54 220 2.0 7.0 0.00 0.00 0.03 60 1007.3
20260505221804 54 286 2.0 7.0 0.00 0.00 0.03 59 1007.3
20260505221654 54 213 3.0 7.0 0.00 0.00 0.03 59 1007.3
20260505221549 54 140 2.0 7.0 0.00 0.00 0.03 59 1007.3
20260505221443 54 259 3.0 7.0 0.00 0.00 0.03 59 1006.9
20260505221337 54 214 1.0 7.0 0.00 0.00 0.03 59 1007.3
20260505221232 54 231 3.0 7.0 0.00 0.00 0.03 60 1007.3
20260505221125 54 260 3.0 8.0 0.00 0.00 0.03 59 1007.3
20260505221032 54 265 2.0 8.0 0.00 0.00 0.03 59 1007.3
20260505220931 54 315 0.0 8.0 0.00 0.00 0.03 62 1007.3
20260505220914 54 249 0.0 8.0 0.00 0.00 0.03 60 1007.3
20260505220810 54 152 3.0 8.0 0.00 0.00 0.03 61 1007.3
20260505220801 54 208 4.0 9.0 0.00 0.00 0.03 68 1007.3
20260505220757 54 136 3.0 6.0 0.00 0.00 0.03 73 1007.3
20260505220752 54 255 4.0 6.0 0.00 0.00 0.03 66 1007.3
20260505220748 54 265 0.0 8.0 0.00 0.00 0.03 62 1007.3
20260505220742 54 269 1.0 8.0 0.00 0.00 0.03 61 1006.9
20260505220733 54 189 4.0 8.0 0.00 0.00 0.03 61 1007.3
20260505220724 54 280 1.0 8.0 0.00 0.00 0.03 61 1007.3
20260505220502 54 258 2.0 8.0 0.00 0.00 0.03 62 1007.3
20260505220453 54 263 2.0 8.0 0.00 0.00 0.03 63 1007.3
20260505220225 54 284 3.0 7.0 0.00 0.00 0.03 62 1007.3
20260505220216 54 356 3.0 6.0 0.00 0.00 0.03 64 1007.3
20260505220205 54 241 1.0 6.0 0.00 0.00 0.03 66 1007.3
20260505215941 54 332 1.0 6.0 0.00 0.00 0.03 65 1007.3
20260505215718 54 186 3.0 6.0 0.00 0.00 0.03 66 1007.3
20260505215708 54 250 2.0 6.0 0.00 0.00 0.03 66 1007.3
20260505215659 54 226 1.0 6.0 0.00 0.00 0.03 66 1007.3
20260505215433 54 247 1.0 6.0 0.00 0.00 0.03 68 1007.3
20260505215424 54 333 2.0 6.0 0.00 0.00 0.03 68 1007.3
20260505215204 54 225 2.0 6.0 0.00 0.00 0.03 67 1007.3
20260505215155 54 239 3.0 6.0 0.00 0.00 0.03 68 1007.3
20260505214936 54 179 1.0 7.0 0.00 0.00 0.03 68 1007.3
20260505214925 54 319 1.0 8.0 0.00 0.00 0.03 68 1007.3
20260505214920 54 219 2.0 8.0 0.00 0.00 0.03 68 1007.3
20260505214911 54 1 0.0 9.0 0.00 0.00 0.03 69 1007.3
20260505214649 54 244 0.0 9.0 0.00 0.00 0.03 68 1007.3
20260505214639 54 286 1.0 9.0 0.00 0.00 0.03 68 1007.3
20260505214628 54 208 4.0 9.0 0.00 0.00 0.03 68 1007.3
20260505214408 54 236 2.0 9.0 0.00 0.00 0.03 68 1007.3
20260505214359 54 256 4.0 9.0 0.00 0.00 0.03 68 1007.3
20260505214135 54 278 2.0 9.0 0.00 0.00 0.03 68 1007.3
20260505214126 54 203 5.0 9.0 0.00 0.00 0.03 69 1007.3
20260505213856 54 236 5.0 9.0 0.00 0.00 0.03 68 1007.3
20260505213847 54 241 4.0 6.0 0.00 0.00 0.03 70 1007.3
20260505213624 54 239 3.0 6.0 0.00 0.00 0.03 71 1006.9
20260505213614 54 232 2.0 6.0 0.00 0.00 0.03 72 1007.3
20260505213605 54 205 3.0 6.0 0.00 0.00 0.03 72 1007.3
20260505213307 54 320 3.0 6.0 0.00 0.00 0.03 73 1006.9
20260505213202 54 222 2.0 3.0 0.00 0.00 0.03 74 1007.3
20260505213055 54 222 2.0 3.0 0.00 0.00 0.03 74 1006.9
20260505213003 54 221 3.0 3.0 0.00 0.00 0.03 74 1006.9
20260505212843 54 227 1.0 3.0 0.00 0.00 0.03 75 1007.3
20260505212738 54 228 1.0 3.0 0.00 0.00 0.03 75 1007.3
20260505212633 54 188 0.0 3.0 0.00 0.00 0.03 75 1006.9
20260505212526 54 245 2.0 3.0 0.00 0.00 0.03 75 1006.9
20260505212421 54 246 2.0 3.0 0.00 0.00 0.03 75 1006.9
20260505212333 54 240 1.0 3.0 0.00 0.00 0.03 76 1007.3
20260505212315 54 273 1.0 3.0 0.00 0.00 0.03 76 1007.3
20260505212209 54 266 2.0 3.0 0.00 0.00 0.03 76 1007.3
20260505212103 54 249 1.0 3.0 0.00 0.00 0.03 76 1006.9
20260505211958 53 250 0.0 3.0 0.00 0.00 0.03 76 1006.9
20260505211852 53 230 1.0 3.0 0.00 0.00 0.03 77 1007.3
20260505211825 53 213 1.0 3.0 0.00 0.00 0.03 77 1007.3
20260505211747 53 240 0.0 4.0 0.00 0.00 0.03 77 1007.3
20260505211653 53 166 2.0 4.0 0.00 0.00 0.03 76 1007.3
20260505211535 53 153 3.0 4.0 0.00 0.00 0.03 77 1007.3
20260505211429 53 229 1.0 6.0 0.00 0.00 0.03 78 1007.3
20260505211322 53 244 0.0 6.0 0.00 0.00 0.03 77 1007.3
20260505211217 53 231 1.0 6.0 0.00 0.00 0.03 77 1007.3
20260505211124 53 202 0.0 6.0 0.00 0.00 0.03 78 1007.3
20260505211005 53 225 1.0 6.0 0.00 0.00 0.03 78 1007.3
20260505210859 53 240 1.0 6.0 0.00 0.00 0.03 77 1007.3
20260505210810 53 207 2.0 8.0 0.00 0.00 0.03 77 1007.3
20260505210753 53 236 4.0 8.0 0.00 0.00 0.03 77 1007.3
20260505210648 53 213 2.0 8.0 0.00 0.00 0.03 78 1007.3
20260505210542 53 260 3.0 8.0 0.00 0.00 0.03 77 1007.3
20260505210437 53 191 4.0 8.0 0.00 0.00 0.03 77 1007.3
20260505210331 53 241 2.0 8.0 0.00 0.00 0.03 77 1007.3
20260505210304 53 250 2.0 8.0 0.00 0.00 0.03 77 1007.3
20260505210225 53 233 4.0 8.0 0.00 0.00 0.03 77 1006.9
20260505210120 53 224 3.0 8.0 0.00 0.00 0.03 77 1007.3
20260505210014 53 250 2.0 8.0 0.00 0.00 0.03 76 1007.3
20260505205909 53 219 3.0 8.0 0.00 0.00 0.03 78 1007.3
20260505205802 53 254 1.0 8.0 0.00 0.00 0.03 77 1007.3
20260505205657 53 237 3.0 8.0 0.00 0.00 0.03 77 1007.3
20260505205551 53 194 7.0 8.0 0.00 0.00 0.03 76 1006.9
20260505205446 53 164 5.0 7.0 0.00 0.00 0.03 76 1007.3
20260505205340 53 244 3.0 7.0 0.00 0.00 0.03 76 1007.3
20260505205251 53 134 4.0 7.0 0.00 0.00 0.03 76 1007.3
20260505205235 53 243 3.0 7.0 0.00 0.00 0.03 77 1007.3
20260505205130 53 222 4.0 7.0 0.00 0.00 0.03 77 1007.6
20260505205023 53 200 4.0 7.0 0.00 0.00 0.03 76 1007.3
20260505204919 53 207 4.0 7.0 0.00 0.00 0.03 76 1007.3
20260505204813 53 223 4.0 7.0 0.00 0.00 0.03 76 1007.3
20260505204746 53 201 5.0 7.0 0.00 0.00 0.03 76 1007.3
20260505204707 53 196 2.0 8.0 0.00 0.00 0.03 77 1007.3
20260505204602 53 224 3.0 8.0 0.00 0.00 0.03 77 1007.3
20260505204457 53 203 2.0 8.0 0.00 0.00 0.03 76 1007.3
20260505204352 53 225 4.0 8.0 0.00 0.00 0.03 77 1007.3
20260505204247 53 218 2.0 8.0 0.00 0.00 0.03 77 1007.3
20260505204140 53 214 1.0 8.0 0.00 0.00 0.03 77 1007.3
20260505204035 53 219 3.0 8.0 0.00 0.00 0.03 77 1007.3
20260505204009 53 174 2.0 7.0 0.00 0.00 0.03 77 1007.3
20260505204005 53 215 2.0 8.0 0.00 0.00 0.03 77 1006.9
20260505203956 53 214 4.0 8.0 0.00 0.00 0.03 77 1007.3
20260505203717 53 156 2.0 7.0 0.00 0.00 0.03 76 1007.3
20260505203612 53 181 2.0 7.0 0.00 0.00 0.03 76 1007.3
20260505203507 53 168 2.0 7.0 0.00 0.00 0.03 76 1007.3
20260505203401 53 158 1.0 7.0 0.00 0.00 0.03 77 1007.3
20260505203256 53 193 1.0 7.0 0.00 0.00 0.03 77 1007.3
20260505203230 53 223 3.0 7.0 0.00 0.00 0.03 76 1007.3
20260505203151 53 255 5.0 7.0 0.00 0.00 0.03 77 1007.3
20260505203043 53 177 1.0 6.0 0.00 0.00 0.03 77 1007.3
20260505202938 53 228 3.0 6.0 0.00 0.00 0.03 76 1007.3
20260505202845 53 240 2.0 6.0 0.00 0.00 0.03 77 1007.3
20260505202727 53 193 1.0 8.0 0.00 0.00 0.03 77 1007.3
20260505202622 53 127 0.0 8.0 0.00 0.00 0.03 77 1007.3
20260505202516 53 242 2.0 8.0 0.00 0.00 0.03 77 1007.3
20260505202410 53 240 2.0 8.0 0.00 0.00 0.03 78 1007.3
20260505202307 53 218 3.0 8.0 0.00 0.00 0.03 78 1007.3
20260505202217 53 202 2.0 8.0 0.00 0.00 0.03 78 1006.9
20260505202200 53 220 1.0 8.0 0.00 0.00 0.03 78 1006.9
20260505202054 53 205 3.0 8.0 0.00 0.00 0.03 78 1006.9
20260505201949 52 97 3.0 8.0 0.00 0.00 0.03 78 1006.9
20260505201843 52 199 4.0 9.0 0.00 0.00 0.03 78 1006.9
20260505201738 53 183 3.0 9.0 0.00 0.00 0.03 78 1007.3
20260505201711 53 226 4.0 9.0 0.00 0.00 0.03 78 1007.3
20260505201632 53 189 6.0 9.0 0.00 0.00 0.03 78 1007.3
20260505201526 53 216 2.0 10.0 0.00 0.00 0.03 79 1007.3
20260505201421 53 220 4.0 10.0 0.00 0.00 0.03 79 1007.3
20260505201316 53 237 4.0 10.0 0.00 0.00 0.03 79 1007.3
20260505201210 53 164 1.0 10.0 0.00 0.00 0.03 79 1007.3
20260505201104 53 159 4.0 10.0 0.00 0.00 0.03 79 1007.3
20260505200959 53 210 4.0 10.0 0.00 0.00 0.03 78 1007.3
20260505200853 53 228 3.0 10.0 0.00 0.00 0.03 79 1007.6
20260505200748 53 211 5.0 10.0 0.00 0.00 0.03 79 1007.3
20260505200659 53 213 4.0 10.0 0.00 0.00 0.03 79 1007.3
20260505200641 53 226 3.0 10.0 0.00 0.00 0.03 79 1007.3
20260505200536 53 222 2.0 8.0 0.00 0.00 0.03 79 1007.3
20260505200430 53 233 2.0 8.0 0.00 0.00 0.03 79 1007.3
20260505200325 53 222 2.0 8.0 0.00 0.00 0.03 80 1007.3
20260505200219 53 212 1.0 8.0 0.00 0.00 0.03 80 1006.9
20260505200153 53 215 3.0 8.0 0.00 0.00 0.03 80 1006.9
20260505200116 53 202 2.0 8.0 0.00 0.00 0.03 80 1007.3
20260505200009 53 211 6.0 8.0 0.00 0.00 0.03 79 1007.3
20260505195903 53 196 2.0 8.0 0.00 0.00 0.03 79 1007.3
20260505195756 52 208 1.0 8.0 0.00 0.00 0.03 80 1007.3
20260505195651 52 165 2.0 8.0 0.00 0.00 0.03 80 1007.3
20260505195546 52 119 2.0 8.0 0.00 0.00 0.03 80 1007.3
20260505195441 52 146 2.0 8.0 0.00 0.00 0.03 80 1007.3
20260505195336 52 193 3.0 8.0 0.00 0.00 0.03 80 1007.3
20260505195230 52 206 5.0 9.0 0.00 0.00 0.03 80 1007.3
20260505195142 52 191 4.0 9.0 0.00 0.00 0.03 79 1007.3
20260505195124 52 171 6.0 9.0 0.00 0.00 0.03 79 1007.3
20260505195019 52 206 2.0 9.0 0.00 0.00 0.03 80 1007.3
20260505194913 52 173 3.0 9.0 0.00 0.00 0.03 80 1007.3
20260505194808 52 193 2.0 9.0 0.00 0.00 0.03 80 1007.3
20260505194702 52 205 3.0 9.0 0.00 0.00 0.03 80 1007.3
20260505194636 52 205 4.0 9.0 0.00 0.00 0.03 80 1007.3
20260505194557 52 209 3.0 9.0 0.00 0.00 0.03 80 1007.3
20260505194452 52 206 4.0 9.0 0.00 0.00 0.03 80 1007.3
20260505194347 52 213 6.0 9.0 0.00 0.00 0.03 79 1007.3
20260505194241 52 250 5.0 9.0 0.00 0.00 0.03 80 1007.3
20260505194135 52 228 4.0 9.0 0.00 0.00 0.03 80 1007.3
20260505194031 52 209 4.0 9.0 0.00 0.00 0.03 80 1007.3
20260505193925 53 221 8.0 9.0 0.00 0.00 0.03 80 1007.3
20260505193819 53 237 4.0 9.0 0.00 0.00 0.03 80 1007.3
20260505193714 52 115 1.0 9.0 0.00 0.00 0.03 81 1007.3
20260505193625 52 236 2.0 9.0 0.00 0.00 0.03 81 1007.3
20260505193610 52 165 1.0 9.0 0.00 0.00 0.03 81 1007.3
20260505193500 52 186 3.0 9.0 0.00 0.00 0.03 81 1007.3
20260505193356 52 179 0.0 9.0 0.00 0.00 0.03 81 1007.3
20260505193249 52 215 3.0 9.0 0.00 0.00 0.03 81 1007.3
20260505193144 52 180 4.0 9.0 0.00 0.00 0.03 81 1007.3
20260505193118 52 194 3.0 9.0 0.00 0.00 0.03 81 1007.6
20260505193037 52 224 5.0 9.0 0.00 0.00 0.03 81 1007.6
20260505192932 52 179 3.0 7.0 0.00 0.00 0.03 81 1007.3
20260505192827 53 157 2.0 8.0 0.00 0.00 0.03 81 1007.3
20260505192721 53 213 2.0 9.0 0.00 0.00 0.03 81 1007.3
20260505192615 53 117 1.0 9.0 0.00 0.00 0.03 81 1007.3
20260505192511 53 201 4.0 9.0 0.00 0.00 0.03 81 1007.6
20260505192405 53 223 1.0 9.0 0.00 0.00 0.03 81 1007.3
20260505192259 53 213 4.0 9.0 0.00 0.00 0.03 81 1007.3
20260505192154 53 212 4.0 9.0 0.00 0.00 0.03 81 1007.6
20260505192106 53 198 5.0 9.0 0.00 0.00 0.03 80 1007.3
20260505192049 53 210 6.0 9.0 0.00 0.00 0.03 80 1007.3
20260505191943 53 216 2.0 9.0 0.00 0.00 0.03 80 1007.3
20260505191838 53 186 3.0 9.0 0.00 0.00 0.03 80 1007.6
20260505191732 53 196 2.0 7.0 0.00 0.00 0.03 81 1007.3
20260505191627 53 212 5.0 7.0 0.00 0.00 0.03 80 1007.3
20260505191600 53 175 4.0 7.0 0.00 0.00 0.03 80 1007.3
20260505191523 53 173 3.0 7.0 0.00 0.00 0.03 80 1007.3
20260505191415 53 213 2.0 7.0 0.00 0.00 0.03 80 1007.3
20260505191311 53 242 4.0 7.0 0.00 0.00 0.03 80 1007.6
20260505191217 53 153 1.0 7.0 0.00 0.00 0.03 80 1007.3
20260505191059 53 187 3.0 7.0 0.00 0.00 0.03 80 1007.6
20260505190954 53 185 2.0 4.0 0.00 0.00 0.03 80 1007.6
20260505190849 53 218 1.0 4.0 0.00 0.00 0.03 80 1007.3
20260505190744 53 209 2.0 4.0 0.00 0.00 0.03 80 1007.6
20260505190638 53 232 3.0 6.0 0.00 0.00 0.03 80 1007.6
20260505190547 53 185 3.0 6.0 0.00 0.00 0.03 80 1007.6
20260505190530 53 198 4.0 6.0 0.00 0.00 0.03 80 1007.6
20260505190425 53 209 1.0 7.0 0.00 0.00 0.03 80 1007.6
20260505190319 53 184 1.0 7.0 0.00 0.00 0.03 81 1007.6
20260505190214 53 170 1.0 7.0 0.00 0.00 0.03 80 1007.3
20260505190108 53 114 1.0 8.0 0.00 0.00 0.03 81 1007.3
20260505190042 53 149 1.0 8.0 0.00 0.00 0.03 81 1007.3
20260505190004 53 206 2.0 8.0 0.00 0.00 0.03 81 1007.3
20260505185857 53 185 2.0 8.0 0.00 0.00 0.03 81 1007.3
20260505185752 53 201 4.0 8.0 0.00 0.00 0.03 81 1007.3
20260505185647 52 195 2.0 8.0 0.00 0.00 0.03 81 1007.3
20260505185540 52 184 5.0 9.0 0.00 0.00 0.03 81 1007.3
20260505185435 52 199 3.0 9.0 0.00 0.00 0.03 81 1007.3
20260505185331 52 220 3.0 9.0 0.00 0.00 0.03 81 1007.3
20260505185225 52 236 4.0 9.0 0.00 0.00 0.03 81 1007.6
20260505185120 52 181 3.0 9.0 0.00 0.00 0.03 81 1007.3
20260505185032 52 172 4.0 9.0 0.00 0.00 0.03 81 1007.6
20260505185014 52 168 4.0 9.0 0.00 0.00 0.03 81 1007.6
20260505184909 52 205 4.0 9.0 0.00 0.00 0.03 81 1007.6
20260505184804 53 188 5.0 9.0 0.00 0.00 0.03 80 1007.3
20260505184711 53 203 7.0 9.0 0.00 0.00 0.03 80 1007.3
20260505184553 52 196 2.0 9.0 0.00 0.00 0.03 81 1007.3
20260505184525 52 189 1.0 9.0 0.00 0.00 0.03 81 1007.3
20260505184447 52 222 3.0 9.0 0.00 0.00 0.03 81 1007.3
20260505184342 52 185 6.0 9.0 0.00 0.00 0.03 81 1007.3
20260505184236 52 161 3.0 9.0 0.00 0.00 0.03 81 1007.3
20260505184131 52 176 8.0 9.0 0.00 0.00 0.03 81 1006.9
20260505184025 52 196 4.0 9.0 0.00 0.00 0.03 81 1007.3
20260505183919 52 153 3.0 9.0 0.00 0.00 0.03 81 1007.3
20260505183815 53 209 4.0 9.0 0.00 0.00 0.03 80 1007.3
20260505183709 53 219 4.0 9.0 0.00 0.00 0.03 80 1007.3
20260505183604 53 231 2.0 9.0 0.00 0.00 0.03 80 1007.3
20260505183515 53 171 7.0 9.0 0.00 0.00 0.03 80 1007.3
20260505183458 53 187 2.0 7.0 0.00 0.00 0.03 80 1007.3
20260505183353 54 151 5.0 7.0 0.00 0.00 0.03 79 1006.9
20260505183247 54 226 3.0 7.0 0.00 0.00 0.03 79 1007.3
20260505183142 54 129 0.0 7.0 0.00 0.00 0.03 78 1007.3
20260505183036 54 165 4.0 7.0 0.00 0.00 0.03 77 1006.9
20260505183008 54 169 2.0 7.0 0.00 0.00 0.03 77 1006.9
20260505182930 54 222 2.0 7.0 0.00 0.00 0.03 78 1006.9
20260505182825 54 132 1.0 7.0 0.00 0.00 0.03 78 1006.9
20260505182719 54 182 4.0 7.0 0.00 0.00 0.03 77 1006.9
20260505182613 54 211 4.0 7.0 0.00 0.00 0.03 77 1006.9
20260505182509 54 232 3.0 7.0 0.00 0.00 0.03 77 1006.9
20260505182403 54 181 3.0 8.0 0.00 0.00 0.03 77 1006.9
20260505182258 55 212 4.0 9.0 0.00 0.00 0.03 76 1006.9
20260505182152 55 196 3.0 9.0 0.00 0.00 0.03 75 1006.9
20260505182047 55 208 5.0 9.0 0.00 0.00 0.03 74 1006.9
20260505181958 55 206 5.0 9.0 0.00 0.00 0.03 73 1006.9
20260505181941 55 204 3.0 9.0 0.00 0.00 0.03 73 1006.9
20260505181836 55 205 3.0 9.0 0.00 0.00 0.03 73 1006.9
20260505181731 54 221 2.0 9.0 0.00 0.00 0.03 73 1006.6
20260505181624 54 218 1.0 9.0 0.00 0.00 0.03 73 1006.9
20260505181530 54 201 3.0 9.0 0.00 0.00 0.03 73 1006.9
20260505181451 54 255 2.0 9.0 0.00 0.00 0.03 72 1006.9
20260505181412 54 195 6.0 9.0 0.00 0.00 0.03 73 1006.9
20260505181306 54 210 3.0 7.0 0.00 0.00 0.03 73 1006.9
20260505181201 55 206 5.0 7.0 0.00 0.00 0.03 73 1006.9
20260505181056 55 229 3.0 6.0 0.00 0.00 0.03 73 1006.9
20260505180950 55 177 1.0 7.0 0.00 0.00 0.03 74 1006.9
20260505180844 54 125 1.0 7.0 0.00 0.00 0.03 73 1006.9
20260505180739 54 247 0.0 7.0 0.00 0.00 0.03 74 1006.9
20260505180634 54 273 1.0 7.0 0.00 0.00 0.03 75 1006.9
20260505180528 54 211 1.0 7.0 0.00 0.00 0.03 74 1006.9
20260505180441 54 226 0.0 7.0 0.00 0.00 0.03 74 1006.9
20260505180423 54 194 0.0 7.0 0.00 0.00 0.03 74 1006.6
20260505180317 54 193 4.0 7.0 0.00 0.00 0.03 74 1006.9
20260505180212 54 272 4.0 7.0 0.00 0.00 0.03 75 1006.6
20260505180118 54 248 2.0 7.0 0.00 0.00 0.03 74 1006.6
20260505175935 54 171 3.0 6.0 0.00 0.00 0.03 74 1006.6
20260505175856 53 207 3.0 6.0 0.00 0.00 0.03 75 1006.6
20260505175750 53 187 2.0 6.0 0.00 0.00 0.03 74 1006.6
20260505175645 53 228 2.0 6.0 0.00 0.00 0.03 74 1006.9
20260505175539 53 233 3.0 3.0 0.00 0.00 0.03 76 1006.6
20260505175433 0 0.0 0.0 0.00 0.00 0.03
20260505174651 53 249 2.0 9.0 0.00 0.04 0.03 76 1006.6
20260505174545 53 238 3.0 9.0 0.00 0.04 0.03 76 1006.6
20260505174518 53 216 3.0 9.0 0.00 0.04 0.03 77 1006.6
20260505174439 53 227 1.0 9.0 0.00 0.04 0.03 76 1006.9
20260505174333 53 209 4.0 9.0 0.00 0.04 0.03 76 1006.9
20260505174228 53 258 4.0 9.0 0.00 0.04 0.03 77 1006.6
20260505174122 53 209 4.0 9.0 0.00 0.04 0.03 75 1006.6
20260505174015 53 249 0.0 9.0 0.00 0.04 0.03 75 1006.6
20260505173909 53 177 3.0 9.0 0.00 0.04 0.03 75 1006.6
20260505173804 53 218 2.0 10.0 0.01 0.04 0.03 76 1006.6
20260505173658 53 228 0.0 10.0 0.01 0.04 0.03 75 1006.9
20260505173552 53 231 4.0 10.0 0.01 0.04 0.03 77 1006.9
20260505173504 53 171 1.0 10.0 0.01 0.04 0.03 75 1006.6
20260505173447 53 210 3.0 10.0 0.01 0.04 0.03 75 1006.6
20260505173342 53 262 4.0 10.0 0.01 0.04 0.03 75 1006.6
20260505173236 53 217 4.0 10.0 0.01 0.04 0.03 75 1006.6
20260505173130 53 186 5.0 10.0 0.01 0.04 0.03 75 1006.6
20260505173024 54 225 4.0 10.0 0.01 0.04 0.03 76 1006.1
20260505172957 54 229 4.0 10.0 0.01 0.04 0.03 75 1006.1
20260505172918 54 221 7.0 10.0 0.01 0.04 0.03 75 1006.1
20260505172813 54 277 4.0 8.0 0.01 0.04 0.03 77 1006.1
20260505172735 53 344 0.0 3.0 0.00 0.02 0.01 79 1007.3
20260505172730 51 182 3.0 7.0 0.00 0.02 0.01 82 1006.9
20260505172726 52 218 3.0 3.0 0.00 0.02 0.01 80 1007.3
20260505172722 50 191 1.0 8.0 0.02 0.04 0.03 86 1006.9
20260505172718 50 206 7.0 9.0 0.02 0.04 0.03 84 1006.9
20260505172714 53 195 0.0 7.0 0.02 0.04 0.03 82 1006.1
20260505172710 53 263 3.0 8.0 0.01 0.04 0.03 78 1006.1
20260505172700 52 216 1.0 6.0 0.02 0.04 0.03 85 1006.6
20260505172656 51 198 1.0 8.0 0.02 0.04 0.03 86 1006.9
20260505172652 53 221 4.0 8.0 0.01 0.04 0.03 78 1006.6
20260505172637 53 248 4.0 8.0 0.01 0.04 0.03 78 1006.1
20260505172417 53 206 4.0 8.0 0.02 0.04 0.03 79 1006.6
20260505172408 53 154 3.0 7.0 0.02 0.04 0.03 79 1006.6
20260505172359 53 233 4.0 7.0 0.02 0.04 0.03 80 1006.6
20260505172350 53 6 2.0 7.0 0.02 0.04 0.03 82 1006.1
20260505172125 53 216 1.0 7.0 0.02 0.04 0.03 82 1006.6
20260505171903 52 173 5.0 7.0 0.02 0.04 0.03 82 1006.6
20260505171859 53 253 3.0 7.0 0.02 0.04 0.03 83 1006.6
20260505171850 53 193 3.0 7.0 0.02 0.04 0.03 83 1006.6
20260505171842 52 199 4.0 7.0 0.02 0.04 0.03 83 1006.9
20260505171833 52 245 4.0 7.0 0.02 0.04 0.03 83 1006.6
20260505171608 52 275 4.0 7.0 0.02 0.04 0.03 84 1006.9
20260505171343 52 206 5.0 7.0 0.02 0.04 0.03 83 1006.9
20260505171334 52 221 4.0 7.0 0.02 0.04 0.03 84 1006.9
20260505171325 52 240 4.0 6.0 0.02 0.04 0.03 85 1006.6
20260505171314 52 216 1.0 6.0 0.02 0.04 0.03 85 1006.6
20260505170835 52 281 3.0 6.0 0.02 0.04 0.03 85 1006.6
20260505170826 52 177 2.0 6.0 0.02 0.04 0.03 86 1006.6
20260505170817 51 266 1.0 8.0 0.02 0.04 0.03 86 1006.6
20260505170808 51 221 2.0 8.0 0.02 0.04 0.03 86 1006.9
20260505170543 51 223 1.0 8.0 0.02 0.04 0.03 86 1006.9
20260505170319 51 253 2.0 8.0 0.02 0.04 0.03 86 1006.9
20260505170311 51 228 2.0 8.0 0.02 0.04 0.03 85 1006.9
20260505170302 51 290 2.0 8.0 0.02 0.04 0.03 86 1006.9
20260505170240 50 181 2.0 8.0 0.02 0.04 0.03 86 1006.9
20260505170015 50 186 4.0 9.0 0.02 0.04 0.03 85 1006.9
20260505165754 50 211 4.0 9.0 0.02 0.04 0.03 85 1006.9
20260505165745 50 187 6.0 9.0 0.02 0.04 0.03 86 1006.6
20260505165736 50 201 4.0 9.0 0.02 0.04 0.03 85 1006.6
20260505165506 50 193 2.0 9.0 0.02 0.04 0.03 85 1006.9
20260505165458 50 208 4.0 9.0 0.02 0.04 0.03 85 1006.9
20260505165238 50 197 5.0 9.0 0.02 0.04 0.03 84 1006.9
20260505165229 50 244 3.0 9.0 0.02 0.04 0.03 85 1006.9
20260505165220 50 233 5.0 9.0 0.02 0.04 0.03 84 1006.9
20260505164959 50 193 7.0 9.0 0.02 0.04 0.03 85 1006.9
20260505164950 50 264 3.0 9.0 0.02 0.04 0.03 85 1006.9
20260505164730 50 195 3.0 8.0 0.02 0.04 0.03 85 1006.9
20260505164726 50 174 2.0 6.0 0.02 0.04 0.03 86 1007.3
20260505164718 50 221 3.0 6.0 0.02 0.04 0.03 85 1007.3
20260505164709 50 230 2.0 6.0 0.02 0.04 0.03 85 1006.9
20260505164443 50 167 3.0 8.0 0.02 0.04 0.03 85 1006.9
20260505164222 50 197 2.0 8.0 0.02 0.04 0.03 85 1007.3
20260505164213 50 214 4.0 8.0 0.02 0.04 0.03 84 1007.3
20260505164204 50 198 4.0 8.0 0.02 0.04 0.03 84 1006.9
20260505163934 50 203 1.0 8.0 0.01 0.03 0.02 85 1006.9
20260505163926 50 231 2.0 8.0 0.01 0.03 0.02 85 1006.9
20260505163706 50 239 3.0 8.0 0.01 0.03 0.02 83 1006.9
20260505163657 50 262 3.0 8.0 0.01 0.03 0.02 82 1006.9
20260505163438 50 226 5.0 8.0 0.01 0.03 0.02 83 1006.9
20260505163427 50 193 2.0 8.0 0.01 0.03 0.02 82 1006.9
20260505163423 50 277 4.0 8.0 0.01 0.03 0.02 82 1006.9
20260505163414 51 230 4.0 6.0 0.01 0.03 0.02 82 1007.3
20260505163154 51 216 2.0 6.0 0.01 0.03 0.02 83 1006.9
20260505163145 51 238 1.0 6.0 0.01 0.03 0.02 82 1006.9
20260505162925 51 191 0.0 6.0 0.01 0.03 0.02 82 1007.3
20260505162914 51 197 2.0 6.0 0.01 0.03 0.02 81 1007.3
20260505162910 51 312 2.0 6.0 0.01 0.03 0.02 81 1006.9
20260505162901 51 213 2.0 7.0 0.01 0.03 0.02 82 1006.9
20260505162638 51 203 1.0 7.0 0.01 0.03 0.02 81 1006.9
20260505162629 51 225 3.0 7.0 0.00 0.02 0.02 80 1006.9
20260505162618 51 182 3.0 7.0 0.00 0.02 0.01 82 1006.9
20260505162354 51 286 1.0 7.0 0.00 0.02 0.01 81 1006.9
20260505162129 52 240 2.0 7.0 0.00 0.02 0.01 80 1006.9
20260505162119 52 237 4.0 7.0 0.00 0.02 0.01 79 1006.9
20260505162110 52 257 3.0 7.0 0.00 0.02 0.01 79 1007.3
20260505161844 52 222 1.0 7.0 0.00 0.02 0.01 79 1007.3
20260505161840 52 260 3.0 7.0 0.00 0.02 0.01 79 1007.3
20260505161832 52 193 2.0 4.0 0.00 0.02 0.01 78 1007.3
20260505161607 52 153 0.0 4.0 0.00 0.02 0.01 80 1006.9
20260505161558 52 241 3.0 4.0 0.00 0.02 0.01 80 1006.9
20260505161549 52 216 2.0 3.0 0.00 0.02 0.01 80 1007.3
20260505161328 52 243 2.0 3.0 0.00 0.02 0.01 78 1007.3
20260505161319 52 303 0.0 3.0 0.00 0.02 0.01 79 1007.3
20260505161056 52 282 0.0 3.0 0.00 0.02 0.01 79 1007.3
20260505161046 53 311 1.0 3.0 0.00 0.02 0.01 78 1007.3
20260505161036 53 344 0.0 3.0 0.00 0.02 0.01 79 1007.3
20260505160715 53 4 0.0 3.0 0.00 0.02 0.01 78 1007.3
20260505160610 53 350 1.0 4.0 0.00 0.02 0.01 79 1007.3
20260505160545 53 272 2.0 8.0 0.00 0.02 0.01 77 1006.9
20260505160539 53 214 1.0 6.0 0.00 0.02 0.01 79 1007.3
20260505160530 53 318 1.0 8.0 0.00 0.02 0.01 78 1006.9
20260505160253 53 266 2.0 8.0 0.00 0.02 0.01 77 1006.9
20260505160148 53 268 2.0 8.0 0.00 0.02 0.01 78 1006.9
20260505153317 55 259 1.0 6.0 0.00 0.02 0.01 68 1006.6
20260505153211 55 224 2.0 6.0 0.00 0.02 0.01 69 1006.6
20260505153119 55 232 3.0 6.0 0.00 0.02 0.01 69 1006.1
20260505153000 55 225 2.0 6.0 0.00 0.02 0.01 68 1006.1
20260505152853 56 233 2.0 6.0 0.00 0.02 0.01 67 1006.6
20260505152748 56 263 2.0 4.0 0.00 0.02 0.01 68 1006.6
20260505152721 56 314 1.0 4.0 0.00 0.02 0.01 68 1006.1
20260505152642 56 331 1.0 4.0 0.00 0.02 0.01 68 1006.1
20260505152537 56 233 2.0 4.0 0.00 0.02 0.01 67 1006.1
20260505152431 56 263 3.0 4.0 0.00 0.02 0.01 68 1006.1
20260505152326 56 330 2.0 3.0 0.00 0.02 0.01 67 1006.1
20260505152220 56 258 0.0 3.0 0.00 0.02 0.01 68 1006.1
20260505152115 56 311 1.0 6.0 0.00 0.02 0.01 69 1005.8
20260505152009 56 146 0.0 8.0 0.00 0.02 0.01 71 1005.8
20260505151903 56 213 1.0 8.0 0.00 0.02 0.01 69 1006.1
20260505151758 56 211 3.0 8.0 0.00 0.02 0.01 70 1005.8
20260505151709 56 195 0.0 8.0 0.00 0.02 0.01 70 1006.1
20260505151652 56 292 1.0 8.0 0.00 0.02 0.01 70 1006.1
20260505151558 56 327 1.0 8.0 0.00 0.02 0.01 70 1005.8
20260505151438 56 280 3.0 8.0 0.00 0.02 0.01 69 1006.1
20260505151333 56 176 2.0 8.0 0.00 0.02 0.01 68 1006.1
20260505151227 56 217 1.0 8.0 0.00 0.02 0.01 69 1006.1
20260505151201 56 220 2.0 8.0 0.00 0.02 0.01 69 1006.1
20260505151122 56 249 2.0 8.0 0.00 0.02 0.01 69 1006.1
20260505151016 56 268 2.0 4.0 0.00 0.02 0.01 70 1006.1
20260505150910 56 256 3.0 4.0 0.00 0.02 0.01 70 1005.8
20260505150805 56 310 1.0 3.0 0.00 0.02 0.01 71 1005.8
20260505150659 56 247 1.0 3.0 0.00 0.02 0.01 70 1005.8
20260505150553 56 251 1.0 3.0 0.00 0.02 0.01 70 1006.1
20260505150447 56 221 1.0 3.0 0.00 0.02 0.01 70 1006.1
20260505150342 56 293 2.0 3.0 0.00 0.02 0.01 69 1005.8
20260505150249 56 218 3.0 3.0 0.00 0.02 0.01 69 1005.8
20260505150148 56 212 3.0 4.0 0.00 0.02 0.01 70 1005.8
20260505150130 56 240 2.0 4.0 0.00 0.02 0.01 71 1005.8
20260505140647 56 166 0.0 4.0 0.00 0.02 0.01 71 1005.5
20260505140540 56 331 2.0 4.0 0.00 0.02 0.01 71 1005.5
20260505140435 56 113 0.0 6.0 0.00 0.02 0.01 70 1005.5
20260505140342 56 350 2.0 6.0 0.00 0.02 0.01 71 1005.5
20260505140223 56 298 1.0 6.0 0.00 0.02 0.01 71 1005.5
20260505140119 56 292 1.0 6.0 0.00 0.02 0.01 71 1005.5
20260505130154 57 341 5.0 9.0 0.00 0.02 0.01 73 1003.8
20260505130145 58 70 2.0 6.0 0.00 0.02 0.01 73 1003.8
20260505124859 58 211 2.0 6.0 0.00 0.02 0.01 71 1003.4
20260505124850 58 279 2.0 6.0 0.00 0.02 0.01 71 1003.4
20260505124841 58 142 3.0 6.0 0.00 0.02 0.01 71 1003.4
20260505124620 58 238 3.0 6.0 0.00 0.02 0.01 71 1003.4
20260505124558 59 298 4.0 6.0 0.00 0.02 0.01 71 1003.4
20260505124547 59 264 2.0 4.0 0.00 0.02 0.01 71 1003.4
20260505124329 59 137 2.0 4.0 0.00 0.02 0.01 71 1003.4
20260505124321 59 209 4.0 4.0 0.00 0.02 0.01 71 1003.8
20260505124311 59 230 2.0 4.0 0.00 0.02 0.01 72 1003.8
20260505124045 59 207 1.0 4.0 0.00 0.02 0.01 72 1003.4
20260505124036 59 250 4.0 6.0 0.00 0.02 0.01 71 1003.4
20260505124025 59 239 1.0 6.0 0.00 0.02 0.01 72 1003.4
20260505123806 59 231 2.0 6.0 0.00 0.02 0.01 72 1003.8
20260505123757 59 123 0.0 6.0 0.00 0.02 0.01 72 1003.8
20260505123736 58 184 0.0 6.0 0.00 0.02 0.01 72 1003.4
20260505123727 58 111 0.0 6.0 0.00 0.02 0.01 73 1003.4
20260505123716 58 116 0.0 6.0 0.00 0.02 0.01 73 1003.8
20260505123242 58 226 3.0 6.0 0.00 0.02 0.01 73 1003.8
20260505123233 58 264 3.0 7.0 0.00 0.02 0.01 73 1003.8
20260505123224 58 260 4.0 7.0 0.00 0.02 0.01 72 1003.8
20260505123001 58 317 2.0 7.0 0.00 0.02 0.01 73 1003.8
20260505122949 58 205 2.0 7.0 0.00 0.02 0.01 72 1003.4
20260505122945 58 232 3.0 7.0 0.00 0.02 0.01 73 1003.4
20260505122721 58 165 1.0 7.0 0.00 0.02 0.01 73 1003.4
20260505122711 58 213 2.0 7.0 0.00 0.02 0.01 73 1003.4
20260505122702 58 201 2.0 7.0 0.00 0.02 0.01 74 1003.4
20260505122653 58 244 1.0 7.0 0.00 0.02 0.01 74 1003.4
20260505122428 58 308 2.0 7.0 0.00 0.02 0.01 74 1003.4
20260505122208 58 43 2.0 6.0 0.00 0.02 0.01 75 1003.4
20260505122159 58 266 2.0 7.0 0.00 0.02 0.01 75 1003.4
20260505121937 58 5 4.0 7.0 0.00 0.02 0.01 74 1003.4
20260505121921 58 200 0.0 7.0 0.00 0.02 0.01 76 1003.4
20260505121859 58 234 1.0 7.0 0.00 0.02 0.01 75 1003.4
20260505121636 58 247 1.0 7.0 0.00 0.02 0.01 75 1003.4
20260505121627 58 215 3.0 7.0 0.00 0.02 0.01 76 1003.4
20260505121618 58 236 1.0 7.0 0.00 0.02 0.01 76 1003.4
20260505121352 58 238 2.0 7.0 0.00 0.02 0.01 76 1003.4
20260505121343 58 280 3.0 7.0 0.00 0.02 0.01 76 1003.4
20260505121118 58 260 4.0 6.0 0.00 0.02 0.01 77 1003.4
20260505121109 58 294 4.0 4.0 0.00 0.02 0.01 77 1003.4
20260505120846 58 226 2.0 4.0 0.00 0.02 0.01 77 1003.4
20260505120823 58 252 2.0 4.0 0.00 0.02 0.01 78 1003.4
20260505120819 57 228 1.0 4.0 0.00 0.02 0.01 77 1003.4
20260505120810 57 195 1.0 4.0 0.00 0.02 0.01 78 1003.4
20260505120547 57 217 4.0 4.0 0.00 0.02 0.01 78 1003.4
20260505120538 57 230 3.0 4.0 0.00 0.02 0.01 78 1003.4
20260505120510 57 221 4.0 4.0 0.00 0.02 0.01 78 1003.4
20260505120245 57 254 2.0 6.0 0.00 0.02 0.01 78 1003.4
20260505120237 57 255 3.0 6.0 0.00 0.02 0.01 79 1003.8
20260505120015 57 262 2.0 6.0 0.00 0.02 0.01 79 1003.8
20260505120006 56 272 1.0 6.0 0.00 0.02 0.01 80 1003.8
20260505115730 56 144 1.0 6.0 0.00 0.02 0.01 80 1003.8
20260505115623 56 224 3.0 6.0 0.00 0.02 0.01 81 1003.8
20260505115517 56 200 2.0 6.0 0.00 0.02 0.01 81 1003.8
20260505115412 56 239 0.0 6.0 0.00 0.02 0.01 81 1003.8
20260505115307 56 265 2.0 6.0 0.00 0.02 0.01 81 1003.8
20260505115239 56 351 2.0 6.0 0.00 0.02 0.01 81 1003.8
20260505115201 56 277 2.0 6.0 0.00 0.02 0.01 81 1003.1
20260505115055 56 288 3.0 6.0 0.00 0.02 0.01 81 1003.1
20260505114950 56 261 2.0 6.0 0.00 0.02 0.01 81 1003.1
20260505114844 56 274 5.0 6.0 0.00 0.02 0.01 81 1003.1
20260505114738 56 174 2.0 4.0 0.00 0.02 0.01 82 1003.1
20260505114633 56 263 3.0 4.0 0.00 0.02 0.01 82 1003.1
20260505114527 56 214 2.0 4.0 0.00 0.02 0.01 82 1003.1
20260505114434 56 166 1.0 7.0 0.00 0.02 0.01 82 1003.1
20260505114315 56 232 2.0 7.0 0.00 0.02 0.01 82 1003.1
20260505114227 56 196 1.0 7.0 0.00 0.02 0.01 82 1003.1
20260505114210 56 210 1.0 7.0 0.00 0.02 0.01 82 1003.1
20260505114104 56 324 1.0 7.0 0.00 0.02 0.01 82 1003.1
20260505113959 56 117 1.0 7.0 0.00 0.02 0.01 82 1003.1
20260505113853 56 162 2.0 7.0 0.00 0.02 0.01 82 1003.1
20260505113748 56 237 2.0 7.0 0.00 0.02 0.01 82 1003.1
20260505113720 56 251 2.0 7.0 0.00 0.02 0.01 82 1003.1
20260505113642 56 235 1.0 7.0 0.00 0.02 0.01 82 1003.1
20260505113536 56 200 2.0 7.0 0.00 0.02 0.01 82 1003.1
20260505113431 56 266 3.0 7.0 0.00 0.02 0.01 82 1002.8
20260505113325 56 247 2.0 7.0 0.00 0.02 0.01 82 1002.8
20260505113219 56 224 1.0 6.0 0.00 0.02 0.01 83 1002.8
20260505113114 56 254 3.0 6.0 0.00 0.02 0.01 83 1002.8
20260505113008 56 224 4.0 6.0 0.00 0.02 0.01 83 1002.8
20260505112903 56 230 2.0 6.0 0.00 0.02 0.01 83 1002.8
20260505112757 56 311 4.0 7.0 0.00 0.02 0.01 83 1002.8
20260505112708 56 196 3.0 7.0 0.00 0.02 0.01 83 1002.8
20260505112652 56 196 3.0 7.0 0.00 0.02 0.01 83 1002.8
20260505112546 56 239 4.0 7.0 0.00 0.02 0.01 84 1002.8
20260505112453 56 179 1.0 7.0 0.00 0.02 0.01 84 1002.3
20260505112334 56 342 1.0 7.0 0.00 0.02 0.01 84 1002.3
20260505112229 56 230 1.0 7.0 0.00 0.02 0.01 84 1002.3
20260505112203 56 261 2.0 7.0 0.00 0.02 0.01 84 1002.3
20260505112123 56 227 2.0 7.0 0.00 0.02 0.01 84 1002.3
20260505112017 56 93 1.0 7.0 0.00 0.02 0.01 84 1002.3
20260505111912 56 272 2.0 7.0 0.00 0.02 0.01 84 1002.3
20260505111819 56 243 2.0 6.0 0.00 0.02 0.01 84 1002.3
20260505111700 56 249 3.0 6.0 0.00 0.02 0.01 85 1002.3
20260505111555 56 284 3.0 6.0 0.00 0.02 0.01 85 1002.0
20260505111450 56 299 4.0 6.0 0.00 0.02 0.01 85 1002.0
20260505111343 56 172 3.0 6.0 0.00 0.02 0.01 85 1002.0
20260505111238 56 236 2.0 6.0 0.00 0.02 0.01 85 1002.0
20260505111149 56 229 1.0 6.0 0.00 0.02 0.01 85 1002.0
20260505111133 56 182 3.0 6.0 0.00 0.02 0.01 85 1002.0
20260505111026 56 219 2.0 6.0 0.00 0.02 0.01 85 1002.3
20260505110921 56 241 3.0 6.0 0.00 0.02 0.01 85 1002.0
20260505110815 56 159 1.0 6.0 0.00 0.02 0.01 85 1002.0
20260505110710 56 216 2.0 6.0 0.00 0.02 0.01 86 1002.3
20260505110643 56 228 1.0 6.0 0.00 0.02 0.01 86 1002.3
20260505110603 56 240 1.0 6.0 0.00 0.02 0.01 85 1002.3
20260505110457 56 240 4.0 6.0 0.00 0.02 0.01 85 1002.3
20260505110352 56 252 2.0 6.0 0.00 0.02 0.01 85 1002.0
20260505110247 56 294 0.0 6.0 0.00 0.02 0.01 85 1002.3
20260505110140 56 295 0.0 6.0 0.00 0.02 0.01 85 1002.0
20260505102215 56 223 4.0 8.0 0.00 0.02 0.01 85 1001.3
20260505102110 56 252 1.0 8.0 0.00 0.02 0.01 85 1001.0
20260505102043 56 169 0.0 8.0 0.00 0.02 0.01 85 1001.0
20260505102004 56 218 2.0 8.0 0.00 0.02 0.01 85 1001.3
20260505101858 56 261 3.0 8.0 0.00 0.02 0.01 85 1001.0
20260505101752 56 231 4.0 8.0 0.00 0.02 0.01 85 1001.0
20260505101647 56 232 5.0 8.0 0.00 0.02 0.01 85 1001.0
20260505101542 56 237 4.0 11.0 0.00 0.02 0.01 85 1001.0
20260505101437 56 197 2.0 11.0 0.00 0.02 0.01 85 1001.0
20260505101331 56 48 4.0 11.0 0.00 0.02 0.01 85 1001.0
20260505101224 56 211 2.0 11.0 0.00 0.02 0.01 85 1001.0
20260505101119 57 233 4.0 11.0 0.00 0.02 0.01 85 1001.0
20260505101031 57 198 4.0 11.0 0.00 0.02 0.01 84 1001.0
20260505101014 57 161 2.0 11.0 0.00 0.02 0.01 84 1001.0
20260505100908 57 197 2.0 11.0 0.00 0.02 0.01 84 1001.0
20260505100802 57 269 2.0 11.0 0.00 0.02 0.01 84 1001.0
20260505100656 57 211 7.0 11.0 0.00 0.02 0.01 84 1001.0
20260505100551 57 231 4.0 10.0 0.00 0.02 0.01 84 1001.0
20260505100524 57 186 3.0 10.0 0.00 0.02 0.01 84 1001.0
20260505100445 57 221 2.0 10.0 0.00 0.02 0.01 84 1001.0
20260505100340 57 212 5.0 10.0 0.00 0.02 0.01 84 1001.3
20260505100235 57 182 4.0 10.0 0.00 0.02 0.01 84 1001.3
20260505100128 57 173 3.0 10.0 0.00 0.02 0.01 84 1001.0
20260505100023 57 249 4.0 10.0 0.00 0.02 0.01 84 1001.3
20260505095918 57 224 3.0 9.0 0.00 0.02 0.01 84 1001.3
20260505095812 57 250 3.0 9.0 0.00 0.02 0.01 84 1001.0
20260505095707 57 204 3.0 9.0 0.00 0.02 0.01 84 1001.6
20260505095600 57 220 2.0 9.0 0.00 0.02 0.01 84 1001.0
20260505095512 57 254 6.0 11.0 0.00 0.02 0.01 84 1001.0
20260505095455 57 235 4.0 11.0 0.00 0.02 0.01 84 1001.0
20260505095349 57 235 4.0 11.0 0.00 0.02 0.01 84 1001.0
20260505095244 57 274 3.0 11.0 0.00 0.02 0.01 84 1001.0
20260505095138 57 234 4.0 11.0 0.00 0.02 0.01 84 1001.0
20260505095046 57 217 6.0 11.0 0.00 0.02 0.01 84 1001.0
20260505095006 57 216 6.0 11.0 0.00 0.02 0.01 84 1001.0
20260505094926 57 204 7.0 11.0 0.00 0.02 0.01 84 1001.0
20260505094821 57 234 3.0 11.0 0.00 0.02 0.01 84 1001.0
20260505094715 57 239 3.0 11.0 0.00 0.02 0.01 84 1001.0
20260505094610 57 230 3.0 11.0 0.00 0.02 0.01 84 1001.0
20260505094503 57 246 3.0 10.0 0.00 0.02 0.01 84 1001.0
20260505094358 57 201 4.0 10.0 0.00 0.02 0.01 84 1001.0
20260505094253 57 203 6.0 10.0 0.00 0.02 0.01 84 1001.0
20260505094147 57 209 4.0 10.0 0.00 0.02 0.01 84 1001.0
20260505094040 57 236 6.0 10.0 0.00 0.02 0.01 84 1001.0
20260505093951 57 253 2.0 10.0 0.00 0.02 0.01 84 1001.0
20260505093934 57 236 2.0 10.0 0.00 0.02 0.01 84 1001.0
20260505093829 57 277 5.0 10.0 0.00 0.02 0.01 84 1001.0
20260505093724 57 266 7.0 10.0 0.00 0.02 0.01 84 1001.0
20260505093618 57 155 4.0 10.0 0.00 0.02 0.01 84 1001.0
20260505093513 57 231 4.0 10.0 0.00 0.02 0.01 84 1001.0
20260505093445 57 227 4.0 10.0 0.00 0.02 0.01 84 1001.0
20260505093407 57 278 9.0 10.0 0.00 0.02 0.01 84 1001.0
20260505093301 57 228 3.0 9.0 0.00 0.02 0.01 84 1001.0
20260505093216 57 216 4.0 10.0 0.00 0.02 0.01 84 1001.0
20260505093206 57 238 3.0 10.0 0.00 0.02 0.01 84 1001.0
20260505093155 57 241 6.0 10.0 0.00 0.02 0.01 84 1001.0
20260505092838 57 226 4.0 10.0 0.00 0.02 0.01 84 1001.0
20260505092733 57 229 5.0 10.0 0.00 0.02 0.01 84 1001.0
20260505092707 58 202 6.0 10.0 0.00 0.02 0.01 83 1001.0
20260505092703 57 167 2.0 10.0 0.00 0.02 0.01 83 1001.0
20260505092654 58 234 4.0 10.0 0.00 0.02 0.01 83 1001.0
20260505092416 58 187 2.0 10.0 0.00 0.02 0.01 83 1001.0
20260505092310 58 213 9.0 10.0 0.00 0.02 0.01 83 1001.0
20260505092222 58 234 4.0 11.0 0.00 0.02 0.01 83 1001.0
20260505092218 58 226 5.0 11.0 0.00 0.02 0.01 83 1001.0
20260505092156 58 221 4.0 11.0 0.00 0.02 0.01 83 1001.0
20260505092147 58 260 5.0 11.0 0.00 0.02 0.01 83 1001.0
20260505091848 58 185 4.0 11.0 0.00 0.02 0.01 83 1001.0
20260505091743 58 249 5.0 11.0 0.00 0.02 0.01 83 1001.0
20260505091637 58 232 3.0 11.0 0.00 0.02 0.01 82 1001.0
20260505091531 58 126 3.0 11.0 0.00 0.02 0.01 82 1000.6
20260505091426 58 235 5.0 11.0 0.00 0.02 0.01 82 1001.0
20260505091320 58 215 6.0 11.0 0.00 0.02 0.01 82 1001.0
20260505091214 58 243 6.0 11.0 0.00 0.02 0.01 82 1000.6
20260505091109 58 243 8.0 11.0 0.00 0.02 0.01 82 1001.0
20260505091003 58 242 4.0 11.0 0.00 0.02 0.01 82 1000.6
20260505090914 58 212 3.0 11.0 0.00 0.02 0.01 82 1001.0
20260505090857 58 182 2.0 11.0 0.00 0.02 0.01 82 1001.0
20260505090752 58 251 4.0 11.0 0.00 0.02 0.01 82 1001.0
20260505090647 58 196 4.0 11.0 0.00 0.02 0.01 82 1001.0
20260505090541 58 220 5.0 13.0 0.00 0.02 0.01 81 1001.0
20260505090407 58 200 2.0 13.0 0.00 0.02 0.01 81 1001.0
20260505090328 58 231 5.0 13.0 0.00 0.02 0.01 81 1001.0
20260505090222 58 215 5.0 13.0 0.00 0.02 0.01 81 1000.6
20260505090116 58 220 6.0 13.0 0.00 0.02 0.01 81 1001.0
20260505090011 58 159 3.0 13.0 0.00 0.02 0.01 81 1001.0
20260505085905 58 221 2.0 13.0 0.00 0.02 0.01 81 1000.6
20260505085800 58 196 6.0 13.0 0.00 0.02 0.01 81 1001.0
20260505085654 58 223 6.0 13.0 0.00 0.02 0.01 80 1000.6
20260505085549 58 193 7.0 11.0 0.00 0.02 0.01 80 1000.6
20260505085443 58 228 3.0 11.0 0.00 0.02 0.01 80 1000.6
20260505085354 58 245 6.0 11.0 0.00 0.02 0.01 80 1001.0
20260505085338 58 262 5.0 11.0 0.00 0.02 0.01 80 1001.0
20260505085231 59 253 4.0 11.0 0.00 0.02 0.01 80 1001.0
20260505085126 59 227 5.0 11.0 0.00 0.02 0.01 80 1001.0
20260505085020 59 234 6.0 11.0 0.00 0.02 0.01 80 1000.6
20260505084915 59 226 1.0 10.0 0.00 0.02 0.01 80 1000.3
20260505084848 59 187 4.0 10.0 0.00 0.02 0.01 80 1000.3
20260505084809 59 252 6.0 10.0 0.00 0.02 0.01 80 1000.6
20260505084704 59 200 4.0 10.0 0.00 0.02 0.01 79 1000.3
20260505084558 59 249 8.0 10.0 0.00 0.02 0.01 79 1000.6
20260505084453 59 196 4.0 9.0 0.00 0.02 0.01 79 1000.3
20260505084347 59 248 4.0 9.0 0.00 0.02 0.01 79 1000.6
20260505084241 59 232 4.0 9.0 0.00 0.02 0.01 79 1000.6
20260505084135 59 232 5.0 9.0 0.00 0.02 0.01 79 1000.6
20260505084030 59 227 5.0 8.0 0.00 0.02 0.01 79 1000.6
20260505083924 59 302 4.0 8.0 0.00 0.02 0.01 79 1000.6
20260505083836 59 264 3.0 10.0 0.00 0.02 0.01 79 1000.6
20260505083819 59 114 1.0 10.0 0.00 0.02 0.01 78 1000.3
20260505083713 59 238 4.0 10.0 0.00 0.02 0.01 78 1000.6
20260505083607 59 182 5.0 10.0 0.00 0.02 0.01 78 1000.6
20260505083503 59 226 5.0 10.0 0.00 0.02 0.01 78 1000.6
20260505083357 60 221 5.0 11.0 0.00 0.02 0.01 77 1000.6
20260505083329 60 225 7.0 11.0 0.00 0.02 0.01 77 1000.3
20260505083251 60 238 5.0 11.0 0.00 0.02 0.01 77 1000.3
20260505083145 60 224 7.0 11.0 0.00 0.02 0.01 77 1000.3
20260505083040 60 241 4.0 11.0 0.00 0.02 0.01 77 1000.6
20260505082934 60 231 7.0 11.0 0.00 0.02 0.01 77 1000.3
20260505082828 60 221 2.0 11.0 0.00 0.02 0.01 77 1000.3
20260505082723 60 229 5.0 11.0 0.00 0.02 0.01 77 1000.3
20260505082618 60 260 6.0 11.0 0.00 0.02 0.01 76 1000.6
20260505082511 60 233 6.0 11.0 0.00 0.02 0.01 76 1000.6
20260505082406 60 244 7.0 11.0 0.00 0.02 0.01 76 1000.6
20260505082318 60 208 9.0 11.0 0.00 0.02 0.01 76 1000.3
20260505082300 60 250 4.0 11.0 0.00 0.02 0.01 76 1000.3
20260505082154 60 245 6.0 11.0 0.00 0.02 0.01 75 1000.3
20260505082047 60 194 8.0 11.0 0.00 0.02 0.01 75 1000.3
20260505081942 60 201 6.0 10.0 0.00 0.02 0.01 75 1000.6
20260505081837 60 239 4.0 10.0 0.00 0.02 0.01 75 1000.3
20260505081810 60 235 5.0 10.0 0.00 0.02 0.01 75 1000.3
20260505081731 60 103 7.0 10.0 0.00 0.02 0.01 75 1000.3
20260505081625 60 214 5.0 9.0 0.00 0.02 0.01 75 1000.3
20260505081520 60 251 3.0 9.0 0.00 0.02 0.01 75 1000.3
20260505081415 60 202 6.0 9.0 0.00 0.02 0.01 74 1000.6
20260505081308 60 250 5.0 8.0 0.00 0.02 0.01 75 1000.3
20260505081203 61 232 4.0 15.0 0.00 0.02 0.01 74 1000.3
20260505081057 61 241 5.0 15.0 0.00 0.02 0.01 74 1000.3
20260505080953 61 240 5.0 15.0 0.00 0.02 0.01 74 1000.3
20260505080846 61 192 4.0 15.0 0.00 0.02 0.01 74 1000.3
20260505080740 61 227 6.0 15.0 0.00 0.02 0.01 74 1000.3
20260505080635 61 260 4.0 15.0 0.00 0.02 0.01 74 1000.0
20260505080528 61 227 7.0 15.0 0.00 0.02 0.01 73 1000.0
20260505080424 61 239 5.0 15.0 0.00 0.02 0.01 74 1000.0
20260505080317 61 309 6.0 15.0 0.00 0.02 0.01 73 1000.3
20260505080250 61 191 10.0 15.0 0.00 0.02 0.01 74 1000.3
20260505080213 61 226 6.0 15.0 0.00 0.02 0.01 73 1000.3
20260505080111 61 279 6.0 15.0 0.00 0.02 0.01 73 1000.3
20260505080001 61 232 4.0 10.0 0.00 0.02 0.01 74 1000.3
20260505075856 61 292 4.0 10.0 0.00 0.02 0.01 74 1000.0
20260505075749 61 234 6.0 9.0 0.00 0.02 0.01 73 1000.3
20260505075644 61 255 5.0 9.0 0.00 0.02 0.01 74 1000.3
20260505075538 61 238 4.0 10.0 0.00 0.02 0.01 74 1000.0
20260505075432 61 212 6.0 10.0 0.00 0.02 0.01 74 1000.3
20260505075326 61 252 4.0 14.0 0.00 0.02 0.01 74 1000.0
20260505075238 61 196 2.0 14.0 0.00 0.02 0.01 74 1000.0
20260505075221 61 227 3.0 14.0 0.00 0.02 0.01 74 1000.0
20260505075115 61 223 4.0 14.0 0.00 0.02 0.01 74 1000.0
20260505075010 61 221 3.0 14.0 0.00 0.02 0.01 73 1000.0
20260505074904 61 238 3.0 14.0 0.00 0.02 0.01 73 1000.0
20260505074759 61 232 4.0 14.0 0.00 0.02 0.01 73 1000.0
20260505074732 61 230 5.0 14.0 0.00 0.02 0.01 73 999.6
20260505074652 61 235 6.0 14.0 0.00 0.02 0.01 73 999.6
20260505074548 61 236 6.0 14.0 0.00 0.02 0.01 73 1000.0
20260505074441 61 299 6.0 14.0 0.00 0.02 0.01 73 999.6
20260505074336 61 203 3.0 9.0 0.00 0.02 0.01 74 999.3
20260505074230 61 288 4.0 9.0 0.00 0.02 0.01 74 999.6
20260505074125 60 207 3.0 9.0 0.00 0.02 0.01 74 999.6
20260505074019 60 269 4.0 11.0 0.00 0.02 0.01 74 999.6
20260505073914 60 227 3.0 11.0 0.00 0.02 0.01 74 999.6
20260505073808 60 229 5.0 11.0 0.00 0.02 0.01 75 1000.0
20260505073719 60 237 5.0 11.0 0.00 0.02 0.01 75 999.6
20260505073702 60 230 3.0 11.0 0.00 0.02 0.01 75 999.6
20260505073556 60 265 3.0 11.0 0.00 0.02 0.01 76 999.6
20260505073450 60 223 2.0 11.0 0.00 0.02 0.01 76 999.3
20260505073344 60 228 4.0 11.0 0.00 0.02 0.01 75 999.3
20260505073239 60 253 4.0 11.0 0.00 0.02 0.01 75 999.3
20260505073212 60 234 4.0 11.0 0.00 0.02 0.01 75 999.3
20260505073134 60 236 7.0 11.0 0.00 0.02 0.01 75 999.6
20260505073028 60 244 2.0 7.0 0.00 0.02 0.01 76 999.3
20260505072923 60 240 6.0 7.0 0.00 0.02 0.01 76 999.3
20260505072817 60 201 4.0 8.0 0.00 0.02 0.01 76 999.6
20260505072711 60 200 4.0 8.0 0.00 0.02 0.01 76 999.3
20260505072606 60 224 3.0 8.0 0.00 0.02 0.01 76 999.3
20260505072500 60 221 3.0 8.0 0.00 0.02 0.01 76 999.3
20260505072354 60 224 5.0 8.0 0.00 0.02 0.01 76 999.3
20260505072248 60 218 4.0 8.0 0.00 0.02 0.01 76 999.3
20260505072200 60 231 3.0 8.0 0.00 0.02 0.01 76 999.3
20260505072142 60 204 2.0 8.0 0.00 0.02 0.01 76 999.3
20260505072038 60 249 3.0 8.0 0.00 0.02 0.01 77 999.6
20260505071932 60 207 5.0 8.0 0.00 0.02 0.01 76 999.3
20260505071827 60 240 4.0 7.0 0.00 0.02 0.01 77 999.3
20260505071720 60 210 2.0 7.0 0.00 0.02 0.01 77 999.3
20260505071654 60 320 1.0 7.0 0.00 0.02 0.01 77 999.3
20260505071614 60 192 2.0 7.0 0.00 0.02 0.01 77 999.3
20260505071509 60 181 3.0 7.0 0.00 0.02 0.01 76 999.3
20260505071404 60 217 5.0 7.0 0.00 0.02 0.01 76 999.3
20260505071258 60 284 4.0 6.0 0.00 0.02 0.01 77 999.6
20260505071151 60 222 4.0 6.0 0.00 0.02 0.01 77 999.3
20260505071051 60 233 2.0 4.0 0.00 0.02 0.01 77 999.6
20260505070940 60 250 3.0 4.0 0.00 0.02 0.01 77 999.3
20260505070836 60 203 2.0 8.0 0.00 0.02 0.01 78 999.6
20260505070729 60 210 0.0 8.0 0.00 0.02 0.01 77 999.3
20260505070640 60 222 3.0 8.0 0.00 0.02 0.01 77 999.3
20260505070624 60 178 2.0 8.0 0.00 0.02 0.01 77 999.6
20260505070519 60 210 1.0 8.0 0.00 0.02 0.01 77 999.6
20260505070412 60 240 2.0 8.0 0.00 0.02 0.01 77 999.6
20260505070201 60 223 2.0 8.0 0.00 0.02 0.01 77 999.6
20260505070134 60 234 2.0 8.0 0.00 0.02 0.01 76 999.6
20260505070105 60 268 3.0 8.0 0.00 0.02 0.01 76 999.6
20260505065930 60 210 6.0 8.0 0.00 0.02 0.01 76 999.6
20260505065825 60 37 1.0 7.0 0.00 0.02 0.01 76 1000.0
20260505065719 60 252 4.0 7.0 0.00 0.02 0.01 76 999.6
20260505065630 60 251 4.0 7.0 0.00 0.02 0.01 76 999.6
20260505065613 60 226 4.0 7.0 0.00 0.02 0.01 76 999.6